Time,TemperatureF,DewpointF,PressureIn,WindDirection,WindDirectionDegrees,WindSpeedMPH,WindSpeedGustMPH,Humidity,HourlyPrecipIn,Conditions,Clouds,dailyrainin,SolarRadiationWatts/m^2,SoftwareType,DateUTC
2013-08-20 00:00:00,67.0,64.3,29.95,SE,124,0.0,0.0,91,0.00,,CLR,0.00,0.00,VWS V14.01,2013-08-20 05:00:00,
2013-08-20 00:01:00,67.0,64.3,29.95,SE,124,0.0,0.0,91,0.00,,CLR,0.00,0.00,VWS V14.01,2013-08-20 05:01:00,
2013-08-20 00:05:00,66.9,64.5,29.95,SE,124,0.0,0.0,92,0.00,,CLR,0.00,0.00,VWS V14.01,2013-08-20 05:05:00,
2013-08-20 00:06:00,66.9,64.5,29.95,SE,124,0.0,0.0,92,0.00,,CLR,0.00,0.00,VWS V14.01,2013-08-20 05:06:00,
2013-08-20 00:10:00,66.8,64.4,29.95,SE,124,0.0,0.0,92,0.00,,CLR,0.00,0.00,VWS V14.01,2013-08-20 05:10:00,
2013-08-20 00:11:00,66.8,64.4,29.95,SE,124,0.0,0.0,92,0.00,,CLR,0.00,0.00,VWS V14.01,2013-08-20 05:11:00,
2013-08-20 00:15:00,66.7,64.3,29.95,SE,124,0.0,0.0,92,0.00,,CLR,0.00,0.00,VWS V14.01,2013-08-20 05:15:00,
2013-08-20 00:16:00,66.7,64.3,29.95,SE,124,0.0,0.0,92,0.00,,CLR,0.00,0.00,VWS V14.01,2013-08-20 05:16:00,
2013-08-20 00:20:00,66.5,64.1,29.95,SE,124,0.0,0.0,92,0.00,,CLR,0.00,0.00,VWS V14.01,2013-08-20 05:20:00,
2013-08-20 00:21:00,66.5,64.1,29.95,SE,124,0.0,0.0,92,0.00,,CLR,0.00,0.00,VWS V14.01,2013-08-20 05:21:00,
2013-08-20 00:25:00,66.4,64.0,29.95,SE,124,0.0,0.0,92,0.00,,CLR,0.00,0.00,VWS V14.01,2013-08-20 05:25:00,
2013-08-20 00:26:00,66.4,64.0,29.95,SE,124,0.0,0.0,92,0.00,,CLR,0.00,0.00,VWS V14.01,2013-08-20 05:26:00,
2013-08-20 00:30:00,66.2,63.5,29.95,SE,124,0.0,0.0,91,0.00,,CLR,0.00,0.00,VWS V14.01,2013-08-20 05:30:00,
2013-08-20 00:31:00,66.2,63.5,29.95,SE,124,0.0,0.0,91,0.00,,CLR,0.00,0.00,VWS V14.01,2013-08-20 05:31:00,
2013-08-20 00:35:00,66.1,63.7,29.95,SE,124,0.0,0.0,92,0.00,,CLR,0.00,0.00,VWS V14.01,2013-08-20 05:35:00,
2013-08-20 00:36:00,66.1,63.7,29.95,SE,124,0.0,0.0,92,0.00,,CLR,0.00,0.00,VWS V14.01,2013-08-20 05:36:00,
2013-08-20 00:40:00,66.0,63.9,29.95,SE,124,0.0,0.0,93,0.00,,CLR,0.00,0.00,VWS V14.01,2013-08-20 05:40:00,
2013-08-20 00:41:00,66.0,63.9,29.95,SE,124,0.0,0.0,93,0.00,,CLR,0.00,0.00,VWS V14.01,2013-08-20 05:41:00,
2013-08-20 00:45:00,65.9,63.8,29.95,SE,124,0.0,0.0,93,0.00,,CLR,0.00,0.00,VWS V14.01,2013-08-20 05:45:00,
2013-08-20 00:46:00,65.9,63.8,29.95,SE,124,0.0,0.0,93,0.00,,CLR,0.00,0.00,VWS V14.01,2013-08-20 05:46:00,
2013-08-20 00:50:00,65.8,63.7,29.95,SE,124,0.0,0.0,93,0.00,,CLR,0.00,0.00,VWS V14.01,2013-08-20 05:50:00,
2013-08-20 00:51:00,65.8,63.7,29.95,SE,124,0.0,0.0,93,0.00,,CLR,0.00,0.00,VWS V14.01,2013-08-20 05:51:00,
2013-08-20 00:55:00,65.8,63.7,29.95,SE,124,0.0,0.0,93,0.00,,CLR,0.00,0.00,VWS V14.01,2013-08-20 05:55:00,
2013-08-20 00:56:00,65.7,63.6,29.95,SE,124,0.0,0.0,93,0.00,,CLR,0.00,0.00,VWS V14.01,2013-08-20 05:56:00,
2013-08-20 01:00:00,65.6,63.5,29.95,SE,124,0.0,0.0,93,0.00,,CLR,0.00,0.00,VWS V14.01,2013-08-20 06:00:00,
2013-08-20 01:01:00,65.6,63.5,29.95,SE,124,0.0,0.0,93,0.00,,CLR,0.00,0.00,VWS V14.01,2013-08-20 06:01:00,
2013-08-20 01:05:00,65.5,63.4,29.95,SE,124,0.0,0.0,93,0.00,,CLR,0.00,0.00,VWS V14.01,2013-08-20 06:05:00,
2013-08-20 01:06:00,65.5,63.4,29.95,SE,124,0.0,0.0,93,0.00,,CLR,0.00,0.00,VWS V14.01,2013-08-20 06:06:00,
2013-08-20 01:10:00,65.4,63.3,29.95,SE,124,0.0,0.0,93,0.00,,CLR,0.00,0.00,VWS V14.01,2013-08-20 06:10:00,
2013-08-20 01:11:00,65.4,63.3,29.95,SE,124,0.0,0.0,93,0.00,,CLR,0.00,0.00,VWS V14.01,2013-08-20 06:11:00,
2013-08-20 01:15:00,65.4,63.6,29.94,SE,124,0.0,0.0,94,0.00,,CLR,0.00,0.00,VWS V14.01,2013-08-20 06:15:00,
2013-08-20 01:17:00,65.4,63.6,29.94,SE,124,0.0,0.0,94,0.00,,CLR,0.00,0.00,VWS V14.01,2013-08-20 06:17:00,
2013-08-20 01:20:00,65.3,63.5,29.94,SE,124,0.0,0.0,94,0.00,,CLR,0.00,0.00,VWS V14.01,2013-08-20 06:20:00,
2013-08-20 01:22:00,65.3,63.5,29.94,SE,124,0.0,0.0,94,0.00,,CLR,0.00,0.00,VWS V14.01,2013-08-20 06:22:00,
2013-08-20 01:25:00,65.3,63.5,29.94,SE,124,0.0,0.0,94,0.00,,CLR,0.00,0.00,VWS V14.01,2013-08-20 06:25:00,
2013-08-20 01:27:00,65.3,63.5,29.94,SE,124,0.0,0.0,94,0.00,,CLR,0.00,0.00,VWS V14.01,2013-08-20 06:27:00,
2013-08-20 01:30:00,65.2,63.4,29.94,SE,124,0.0,0.0,94,0.00,,CLR,0.00,0.00,VWS V14.01,2013-08-20 06:30:00,
2013-08-20 01:32:00,65.2,63.4,29.94,SE,124,0.0,0.0,94,0.00,,CLR,0.00,0.00,VWS V14.01,2013-08-20 06:32:00,
2013-08-20 01:35:00,65.2,63.4,29.94,SE,124,0.0,0.0,94,0.00,,CLR,0.00,0.00,VWS V14.01,2013-08-20 06:35:00,
2013-08-20 01:37:00,65.1,63.3,29.94,SE,124,0.0,0.0,94,0.00,,CLR,0.00,0.00,VWS V14.01,2013-08-20 06:37:00,
2013-08-20 01:40:00,65.1,63.3,29.94,SE,124,0.0,0.0,94,0.00,,CLR,0.00,0.00,VWS V14.01,2013-08-20 06:40:00,
2013-08-20 01:42:00,65.0,63.2,29.94,SE,124,0.0,0.0,94,0.00,,CLR,0.00,0.00,VWS V14.01,2013-08-20 06:42:00,
2013-08-20 01:45:00,65.0,63.2,29.94,SE,124,0.0,0.0,94,0.00,,CLR,0.00,0.00,VWS V14.01,2013-08-20 06:45:00,
2013-08-20 01:47:00,65.0,63.2,29.94,SE,124,0.0,0.0,94,0.00,,CLR,0.00,0.00,VWS V14.01,2013-08-20 06:47:00,
2013-08-20 01:50:00,64.9,63.1,29.94,SE,124,0.0,0.0,94,0.00,,CLR,0.00,0.00,VWS V14.01,2013-08-20 06:50:00,
2013-08-20 01:52:00,64.9,63.1,29.94,SE,124,0.0,0.0,94,0.00,,CLR,0.00,0.00,VWS V14.01,2013-08-20 06:52:00,
2013-08-20 01:55:00,64.9,63.1,29.94,SE,124,0.0,0.0,94,0.00,,CLR,0.00,0.00,VWS V14.01,2013-08-20 06:55:00,
2013-08-20 01:57:00,64.8,63.3,29.94,SE,124,0.0,0.0,95,0.00,,CLR,0.00,0.00,VWS V14.01,2013-08-20 06:57:00,
2013-08-20 02:00:00,64.8,63.0,29.94,SE,124,0.0,0.0,94,0.00,,CLR,0.00,0.00,VWS V14.01,2013-08-20 07:00:00,
2013-08-20 02:02:00,64.7,62.9,29.94,SE,124,0.0,0.0,94,0.00,,CLR,0.00,0.00,VWS V14.01,2013-08-20 07:02:00,
2013-08-20 02:05:00,64.7,62.9,29.94,SE,124,0.0,0.0,94,0.00,,CLR,0.00,0.00,VWS V14.01,2013-08-20 07:05:00,
2013-08-20 02:07:00,64.7,62.9,29.94,SE,124,0.0,0.0,94,0.00,,CLR,0.00,0.00,VWS V14.01,2013-08-20 07:07:00,
2013-08-20 02:10:00,64.5,62.7,29.94,SE,124,0.0,0.0,94,0.00,,CLR,0.00,0.00,VWS V14.01,2013-08-20 07:10:00,
2013-08-20 02:12:00,64.5,62.7,29.94,SE,124,0.0,0.0,94,0.00,,CLR,0.00,0.00,VWS V14.01,2013-08-20 07:12:00,
2013-08-20 02:15:00,64.4,62.6,29.94,SE,124,0.0,0.0,94,0.00,,CLR,0.00,0.00,VWS V14.01,2013-08-20 07:15:00,
2013-08-20 02:17:00,64.4,62.6,29.94,SE,124,0.0,0.0,94,0.00,,CLR,0.00,0.00,VWS V14.01,2013-08-20 07:17:00,
2013-08-20 02:20:00,64.3,62.5,29.94,SE,124,0.0,0.0,94,0.00,,CLR,0.00,0.00,VWS V14.01,2013-08-20 07:20:00,
2013-08-20 02:22:00,64.3,62.5,29.94,SE,124,0.0,0.0,94,0.00,,CLR,0.00,0.00,VWS V14.01,2013-08-20 07:22:00,
2013-08-20 02:25:00,64.1,62.3,29.94,SE,124,0.0,0.0,94,0.00,,CLR,0.00,0.00,VWS V14.01,2013-08-20 07:25:00,
2013-08-20 02:27:00,64.1,62.3,29.94,SE,124,0.0,0.0,94,0.00,,CLR,0.00,0.00,VWS V14.01,2013-08-20 07:27:00,
2013-08-20 02:30:00,64.0,62.2,29.94,SE,124,0.0,0.0,94,0.00,,CLR,0.00,0.00,VWS V14.01,2013-08-20 07:30:00,
2013-08-20 02:32:00,64.0,62.2,29.94,SE,124,0.0,0.0,94,0.00,,CLR,0.00,0.00,VWS V14.01,2013-08-20 07:32:00,
2013-08-20 02:35:00,63.8,62.0,29.94,SE,124,0.0,0.0,94,0.00,,CLR,0.00,0.00,VWS V14.01,2013-08-20 07:35:00,
2013-08-20 02:37:00,63.8,62.0,29.94,SE,124,0.0,0.0,94,0.00,,CLR,0.00,0.00,VWS V14.01,2013-08-20 07:37:00,
2013-08-20 02:40:00,63.7,61.9,29.94,SE,124,0.0,0.0,94,0.00,,CLR,0.00,0.00,VWS V14.01,2013-08-20 07:40:00,
2013-08-20 02:42:00,63.7,62.0,29.94,SE,124,0.0,0.0,94,0.00,,CLR,0.00,0.00,VWS V14.01,2013-08-20 07:42:00,
2013-08-20 02:45:00,63.6,62.2,29.93,SE,124,0.0,0.0,95,0.00,,CLR,0.00,0.00,VWS V14.01,2013-08-20 07:45:00,
2013-08-20 02:47:00,63.6,62.2,29.93,SE,124,0.0,0.0,95,0.00,,CLR,0.00,0.00,VWS V14.01,2013-08-20 07:47:00,
2013-08-20 02:50:00,63.5,62.0,29.93,SE,124,0.0,0.0,95,0.00,,CLR,0.00,0.00,VWS V14.01,2013-08-20 07:50:00,
2013-08-20 02:52:00,63.5,62.0,29.93,SE,124,0.0,0.0,95,0.00,,CLR,0.00,0.00,VWS V14.01,2013-08-20 07:52:00,
2013-08-20 02:55:00,63.5,62.0,29.93,SE,124,0.0,0.0,95,0.00,,CLR,0.00,0.00,VWS V14.01,2013-08-20 07:55:00,
2013-08-20 02:57:00,63.4,62.0,29.93,SE,124,0.0,0.0,95,0.00,,CLR,0.00,0.00,VWS V14.01,2013-08-20 07:57:00,
2013-08-20 03:00:00,63.5,62.3,29.93,SE,124,0.0,0.0,96,0.00,,CLR,0.00,0.00,VWS V14.01,2013-08-20 08:00:00,
2013-08-20 03:02:00,63.6,62.4,29.93,SE,124,0.0,0.0,96,0.00,,CLR,0.00,0.00,VWS V14.01,2013-08-20 08:02:00,
2013-08-20 03:05:00,63.6,62.4,29.93,SE,124,0.0,0.0,96,0.00,,CLR,0.00,0.00,VWS V14.01,2013-08-20 08:05:00,
2013-08-20 03:07:00,63.6,62.4,29.93,SE,124,0.0,0.0,96,0.00,,CLR,0.00,0.00,VWS V14.01,2013-08-20 08:07:00,
2013-08-20 03:10:00,63.6,62.4,29.93,SE,124,0.0,0.0,96,0.00,,CLR,0.00,0.00,VWS V14.01,2013-08-20 08:10:00,
2013-08-20 03:12:00,63.6,62.4,29.93,SE,124,0.0,0.0,96,0.00,,CLR,0.00,0.00,VWS V14.01,2013-08-20 08:12:00,
2013-08-20 03:15:00,63.5,62.3,29.93,SE,124,0.0,0.0,96,0.00,,CLR,0.00,0.00,VWS V14.01,2013-08-20 08:15:00,
2013-08-20 03:17:00,63.4,62.2,29.93,SE,124,0.0,0.0,96,0.00,,CLR,0.00,0.00,VWS V14.01,2013-08-20 08:17:00,
2013-08-20 03:20:00,63.4,62.2,29.93,SE,124,0.0,0.0,96,0.00,,CLR,0.00,0.00,VWS V14.01,2013-08-20 08:20:00,
2013-08-20 03:22:00,63.4,62.0,29.93,SE,124,0.0,0.0,95,0.00,,CLR,0.00,0.00,VWS V14.01,2013-08-20 08:22:00,
2013-08-20 03:25:00,63.3,61.8,29.93,SE,124,0.0,0.0,95,0.00,,CLR,0.00,0.00,VWS V14.01,2013-08-20 08:25:00,
2013-08-20 03:27:00,63.2,61.8,29.93,SE,124,0.0,0.0,95,0.00,,CLR,0.00,0.00,VWS V14.01,2013-08-20 08:27:00,
2013-08-20 03:30:00,63.1,61.7,29.93,SE,124,0.0,0.0,95,0.00,,CLR,0.00,0.00,VWS V14.01,2013-08-20 08:30:00,
2013-08-20 03:32:00,63.1,61.7,29.93,SE,124,0.0,0.0,95,0.00,,CLR,0.00,0.00,VWS V14.01,2013-08-20 08:32:00,
2013-08-20 03:35:00,63.0,61.5,29.93,SE,124,0.0,0.0,95,0.00,,CLR,0.00,0.00,VWS V14.01,2013-08-20 08:35:00,
2013-08-20 03:37:00,63.0,61.5,29.93,SE,124,0.0,0.0,95,0.00,,CLR,0.00,0.00,VWS V14.01,2013-08-20 08:37:00,
2013-08-20 03:40:00,62.9,61.5,29.93,SE,124,0.0,0.0,95,0.00,,CLR,0.00,0.00,VWS V14.01,2013-08-20 08:40:00,
2013-08-20 03:42:00,62.8,61.3,29.93,SE,124,0.0,0.0,95,0.00,,CLR,0.00,0.00,VWS V14.01,2013-08-20 08:42:00,
2013-08-20 03:45:00,62.8,61.3,29.94,SE,124,0.0,0.0,95,0.00,,CLR,0.00,0.00,VWS V14.01,2013-08-20 08:45:00,
2013-08-20 03:47:00,62.7,61.2,29.94,SE,124,0.0,0.0,95,0.00,,CLR,0.00,0.00,VWS V14.01,2013-08-20 08:47:00,
2013-08-20 03:50:00,62.7,61.2,29.94,SE,124,0.0,0.0,95,0.00,,CLR,0.00,0.00,VWS V14.01,2013-08-20 08:50:00,
2013-08-20 03:52:00,62.7,61.2,29.94,SE,124,0.0,0.0,95,0.00,,CLR,0.00,0.00,VWS V14.01,2013-08-20 08:52:00,
2013-08-20 03:55:00,62.6,61.2,29.94,SE,124,0.0,0.0,95,0.00,,CLR,0.00,0.00,VWS V14.01,2013-08-20 08:55:00,
2013-08-20 03:57:00,62.6,61.2,29.94,SE,124,0.0,0.0,95,0.00,,CLR,0.00,0.00,VWS V14.01,2013-08-20 08:57:00,
2013-08-20 04:00:00,62.5,61.3,29.94,SE,124,0.0,0.0,96,0.00,,CLR,0.00,0.00,VWS V14.01,2013-08-20 09:00:00,
2013-08-20 04:02:00,62.5,61.3,29.94,SE,124,0.0,0.0,96,0.00,,CLR,0.00,0.00,VWS V14.01,2013-08-20 09:02:00,
2013-08-20 04:05:00,62.5,61.3,29.94,SE,124,0.0,0.0,96,0.00,,CLR,0.00,0.00,VWS V14.01,2013-08-20 09:05:00,
2013-08-20 04:07:00,62.5,61.3,29.94,SE,124,0.0,0.0,96,0.00,,CLR,0.00,0.00,VWS V14.01,2013-08-20 09:07:00,
2013-08-20 04:10:00,62.4,61.2,29.94,SE,124,0.0,0.0,96,0.00,,CLR,0.00,0.00,VWS V14.01,2013-08-20 09:10:00,
2013-08-20 04:12:00,62.4,61.2,29.94,SE,124,0.0,0.0,96,0.00,,CLR,0.00,0.00,VWS V14.01,2013-08-20 09:12:00,
2013-08-20 04:15:00,62.4,61.2,29.94,SE,124,0.0,0.0,96,0.00,,CLR,0.00,0.00,VWS V14.01,2013-08-20 09:15:00,
2013-08-20 04:17:00,62.3,61.2,29.94,SE,124,0.0,0.0,96,0.00,,CLR,0.00,0.00,VWS V14.01,2013-08-20 09:17:00,
2013-08-20 04:20:00,62.3,61.2,29.94,SE,124,0.0,0.0,96,0.00,,CLR,0.00,0.00,VWS V14.01,2013-08-20 09:20:00,
2013-08-20 04:23:00,62.3,61.2,29.94,SE,124,0.0,0.0,96,0.00,,CLR,0.00,0.00,VWS V14.01,2013-08-20 09:23:00,
2013-08-20 04:25:00,62.2,61.0,29.94,SE,124,0.0,0.0,96,0.00,,CLR,0.00,0.00,VWS V14.01,2013-08-20 09:25:00,
2013-08-20 04:28:00,62.2,61.0,29.94,SE,124,0.0,0.0,96,0.00,,CLR,0.00,0.00,VWS V14.01,2013-08-20 09:28:00,
2013-08-20 04:30:00,62.2,61.0,29.94,SE,124,0.0,0.0,96,0.00,,CLR,0.00,0.00,VWS V14.01,2013-08-20 09:30:00,
2013-08-20 04:33:00,62.1,61.0,29.94,SE,124,0.0,0.0,96,0.00,,CLR,0.00,0.00,VWS V14.01,2013-08-20 09:33:00,
2013-08-20 04:35:00,62.0,60.8,29.94,SE,124,0.0,0.0,96,0.00,,CLR,0.00,0.00,VWS V14.01,2013-08-20 09:35:00,
2013-08-20 04:38:00,62.0,60.8,29.94,SE,124,0.0,0.0,96,0.00,,CLR,0.00,0.00,VWS V14.01,2013-08-20 09:38:00,
2013-08-20 04:40:00,62.0,60.8,29.94,SE,124,0.0,0.0,96,0.00,,CLR,0.00,0.00,VWS V14.01,2013-08-20 09:40:00,
2013-08-20 04:43:00,61.9,60.8,29.94,SE,124,0.0,0.0,96,0.00,,CLR,0.00,0.00,VWS V14.01,2013-08-20 09:43:00,
2013-08-20 04:45:00,61.9,60.8,29.94,SE,124,0.0,0.0,96,0.00,,CLR,0.00,0.00,VWS V14.01,2013-08-20 09:45:00,
2013-08-20 04:48:00,61.8,60.7,29.94,SE,124,0.0,0.0,96,0.00,,CLR,0.00,0.00,VWS V14.01,2013-08-20 09:48:00,
2013-08-20 04:50:00,61.8,60.7,29.94,SE,124,0.0,0.0,96,0.00,,CLR,0.00,0.00,VWS V14.01,2013-08-20 09:50:00,
2013-08-20 04:53:00,61.7,60.5,29.94,SE,124,0.0,0.0,96,0.00,,CLR,0.00,0.00,VWS V14.01,2013-08-20 09:53:00,
2013-08-20 04:55:00,61.7,60.5,29.94,SE,124,0.0,0.0,96,0.00,,CLR,0.00,0.00,VWS V14.01,2013-08-20 09:55:00,
2013-08-20 04:58:00,61.7,60.5,29.94,SE,124,0.0,0.0,96,0.00,,CLR,0.00,0.00,VWS V14.01,2013-08-20 09:58:00,
2013-08-20 05:00:00,61.6,60.5,29.94,SE,124,0.0,0.0,96,0.00,,CLR,0.00,0.00,VWS V14.01,2013-08-20 10:00:00,
2013-08-20 05:03:00,61.6,60.2,29.94,SE,124,0.0,0.0,95,0.00,,CLR,0.00,0.00,VWS V14.01,2013-08-20 10:03:00,
2013-08-20 05:05:00,61.5,60.1,29.94,SE,124,0.0,0.0,95,0.00,,CLR,0.00,0.00,VWS V14.01,2013-08-20 10:05:00,
2013-08-20 05:08:00,61.4,60.0,29.94,SE,124,0.0,0.0,95,0.00,,CLR,0.00,0.00,VWS V14.01,2013-08-20 10:08:00,
2013-08-20 05:10:00,61.4,60.0,29.94,SE,124,0.0,0.0,95,0.00,,CLR,0.00,0.00,VWS V14.01,2013-08-20 10:10:00,
2013-08-20 05:13:00,61.4,60.0,29.94,SE,124,0.0,0.0,95,0.00,,CLR,0.00,0.00,VWS V14.01,2013-08-20 10:13:00,
2013-08-20 05:15:00,61.3,59.9,29.94,SE,124,0.0,0.0,95,0.00,,CLR,0.00,0.00,VWS V14.01,2013-08-20 10:15:00,
2013-08-20 05:18:00,61.3,59.9,29.94,SE,124,0.0,0.0,95,0.00,,CLR,0.00,0.00,VWS V14.01,2013-08-20 10:18:00,
2013-08-20 05:20:00,61.2,60.0,29.94,SE,124,0.0,0.0,96,0.00,,CLR,0.00,0.00,VWS V14.01,2013-08-20 10:20:00,
2013-08-20 05:23:00,61.2,60.0,29.94,SE,124,0.0,0.0,96,0.00,,CLR,0.00,0.00,VWS V14.01,2013-08-20 10:23:00,
2013-08-20 05:25:00,61.1,60.0,29.94,SE,124,0.0,0.0,96,0.00,,CLR,0.00,0.00,VWS V14.01,2013-08-20 10:25:00,
2013-08-20 05:28:00,61.1,60.0,29.94,SE,124,0.0,0.0,96,0.00,,CLR,0.00,0.00,VWS V14.01,2013-08-20 10:28:00,
2013-08-20 05:30:00,61.1,60.0,29.95,SE,124,0.0,0.0,96,0.00,,CLR,0.00,0.00,VWS V14.01,2013-08-20 10:30:00,
2013-08-20 05:33:00,61.0,59.9,29.95,SE,124,0.0,0.0,96,0.00,,CLR,0.00,0.00,VWS V14.01,2013-08-20 10:33:00,
2013-08-20 05:35:00,61.0,59.8,29.95,SE,124,0.0,0.0,96,0.00,,CLR,0.00,0.00,VWS V14.01,2013-08-20 10:35:00,
2013-08-20 05:38:00,61.0,59.9,29.95,SE,124,0.0,0.0,96,0.00,,CLR,0.00,0.00,VWS V14.01,2013-08-20 10:38:00,
2013-08-20 05:40:00,61.0,59.8,29.95,SE,124,0.0,0.0,96,0.00,,CLR,0.00,0.00,VWS V14.01,2013-08-20 10:40:00,
2013-08-20 05:43:00,61.0,59.9,29.95,SE,124,0.0,0.0,96,0.00,,CLR,0.00,0.00,VWS V14.01,2013-08-20 10:43:00,
2013-08-20 05:45:00,60.9,59.8,29.95,SE,124,0.0,0.0,96,0.00,,CLR,0.00,0.00,VWS V14.01,2013-08-20 10:45:00,
2013-08-20 05:48:00,60.9,59.8,29.95,SE,124,0.0,0.0,96,0.00,,CLR,0.00,0.00,VWS V14.01,2013-08-20 10:48:00,
2013-08-20 05:50:00,60.9,59.8,29.95,SE,124,0.0,0.0,96,0.00,,CLR,0.00,0.00,VWS V14.01,2013-08-20 10:50:00,
2013-08-20 05:53:00,60.8,59.7,29.95,SE,124,0.0,0.0,96,0.00,,CLR,0.00,0.00,VWS V14.01,2013-08-20 10:53:00,
2013-08-20 05:55:00,60.8,59.7,29.95,SE,124,0.0,0.0,96,0.00,,CLR,0.00,0.00,VWS V14.01,2013-08-20 10:55:00,
2013-08-20 05:58:00,60.8,59.7,29.95,SE,124,0.0,0.0,96,0.00,,CLR,0.00,0.00,VWS V14.01,2013-08-20 10:58:00,
2013-08-20 06:00:00,60.8,59.7,29.95,SE,124,0.0,0.0,96,0.00,,CLR,0.00,0.00,VWS V14.01,2013-08-20 11:00:00,
2013-08-20 06:03:00,60.7,59.6,29.95,SE,124,0.0,0.0,96,0.00,,CLR,0.00,0.00,VWS V14.01,2013-08-20 11:03:00,
2013-08-20 06:05:00,60.7,59.6,29.95,SE,124,0.0,0.0,96,0.00,,CLR,0.00,0.00,VWS V14.01,2013-08-20 11:05:00,
2013-08-20 06:08:00,60.7,59.6,29.95,SE,124,0.0,0.0,96,0.00,,CLR,0.00,0.00,VWS V14.01,2013-08-20 11:08:00,
2013-08-20 06:10:00,60.7,59.6,29.95,SE,124,0.0,0.0,96,0.00,,CLR,0.00,0.00,VWS V14.01,2013-08-20 11:10:00,
2013-08-20 06:13:00,60.6,59.5,29.95,SE,124,0.0,0.0,96,0.00,,CLR,0.00,0.00,VWS V14.01,2013-08-20 11:13:00,
2013-08-20 06:15:00,60.6,59.5,29.95,SE,124,0.0,0.0,96,0.00,,CLR,0.00,0.00,VWS V14.01,2013-08-20 11:15:00,
2013-08-20 06:18:00,60.6,59.5,29.95,SE,124,0.0,0.0,96,0.00,,CLR,0.00,0.00,VWS V14.01,2013-08-20 11:18:00,
2013-08-20 06:20:00,60.5,59.4,29.95,SE,124,0.0,0.0,96,0.00,,CLR,0.00,0.00,VWS V14.01,2013-08-20 11:20:00,
2013-08-20 06:23:00,60.5,59.4,29.95,SE,124,0.0,0.0,96,0.00,,CLR,0.00,0.00,VWS V14.01,2013-08-20 11:23:00,
2013-08-20 06:25:00,60.5,59.4,29.95,SE,124,0.0,0.0,96,0.00,,CLR,0.00,0.00,VWS V14.01,2013-08-20 11:25:00,
2013-08-20 06:28:00,60.4,59.3,29.95,SE,124,0.0,0.0,96,0.00,,CLR,0.00,0.00,VWS V14.01,2013-08-20 11:28:00,
2013-08-20 06:30:00,60.4,59.3,29.95,SE,124,0.0,0.0,96,0.00,,CLR,0.00,0.00,VWS V14.01,2013-08-20 11:30:00,
2013-08-20 06:33:00,60.4,59.3,29.95,SE,124,0.0,0.0,96,0.00,,CLR,0.00,0.00,VWS V14.01,2013-08-20 11:33:00,
2013-08-20 06:35:00,60.3,59.2,29.95,SE,124,0.0,0.0,96,0.00,,CLR,0.00,0.00,VWS V14.01,2013-08-20 11:35:00,
2013-08-20 06:38:00,60.3,59.2,29.95,SE,124,0.0,0.0,96,0.00,,CLR,0.00,0.00,VWS V14.01,2013-08-20 11:38:00,
2013-08-20 06:40:00,60.2,59.1,29.95,SE,124,0.0,0.0,96,0.00,,CLR,0.00,5.00,VWS V14.01,2013-08-20 11:40:00,
2013-08-20 06:43:00,60.2,59.1,29.95,SE,124,0.0,0.0,96,0.00,,CLR,0.00,5.00,VWS V14.01,2013-08-20 11:43:00,
2013-08-20 06:45:00,60.2,59.1,29.96,SE,124,0.0,0.0,96,0.00,,CLR,0.00,7.00,VWS V14.01,2013-08-20 11:45:00,
2013-08-20 06:48:00,60.2,59.1,29.96,SE,124,0.0,0.0,96,0.00,,CLR,0.00,9.00,VWS V14.01,2013-08-20 11:48:00,
2013-08-20 06:50:00,60.2,59.1,29.96,SE,124,0.0,0.0,96,0.00,,CLR,0.00,11.00,VWS V14.01,2013-08-20 11:50:00,
2013-08-20 06:53:00,60.1,59.0,29.96,SE,124,0.0,0.0,96,0.00,,CLR,0.00,11.00,VWS V14.01,2013-08-20 11:53:00,
2013-08-20 06:55:00,60.1,59.0,29.96,SE,124,0.0,0.0,96,0.00,,CLR,0.00,12.00,VWS V14.01,2013-08-20 11:55:00,
2013-08-20 06:58:00,60.1,59.0,29.96,SE,124,0.0,0.0,96,0.00,,CLR,0.00,14.00,VWS V14.01,2013-08-20 11:58:00,
2013-08-20 07:00:00,60.0,58.9,29.96,SE,124,0.0,0.0,96,0.00,,CLR,0.00,14.00,VWS V14.01,2013-08-20 12:00:00,
2013-08-20 07:03:00,60.0,58.9,29.96,SE,124,0.0,0.0,96,0.00,,CLR,0.00,16.00,VWS V14.01,2013-08-20 12:03:00,
2013-08-20 07:05:00,60.0,58.9,29.96,SE,124,0.0,0.0,96,0.00,,CLR,0.00,18.00,VWS V14.01,2013-08-20 12:05:00,
2013-08-20 07:08:00,60.0,58.9,29.96,SSE,150,0.0,0.0,96,0.00,,CLR,0.00,19.00,VWS V14.01,2013-08-20 12:08:00,
2013-08-20 07:10:00,60.0,59.2,29.96,SSE,150,0.0,0.0,97,0.00,,CLR,0.00,19.00,VWS V14.01,2013-08-20 12:10:00,
2013-08-20 07:13:00,60.0,59.2,29.96,SSE,150,0.0,0.0,97,0.00,,CLR,0.00,21.00,VWS V14.01,2013-08-20 12:13:00,
2013-08-20 07:15:00,60.0,59.2,29.97,SSE,150,0.0,0.0,97,0.00,,CLR,0.00,21.00,VWS V14.01,2013-08-20 12:15:00,
2013-08-20 07:19:00,60.0,59.2,29.97,SSE,150,0.0,0.0,97,0.00,,CLR,0.00,23.00,VWS V14.01,2013-08-20 12:19:00,
2013-08-20 07:20:00,60.0,59.2,29.97,SSE,150,0.0,0.0,97,0.00,,CLR,0.00,25.00,VWS V14.01,2013-08-20 12:20:00,
2013-08-20 07:24:00,60.0,59.2,29.97,SSE,150,0.0,0.0,97,0.00,,CLR,0.00,25.00,VWS V14.01,2013-08-20 12:24:00,
2013-08-20 07:25:00,60.0,59.2,29.97,SSE,150,0.0,0.0,97,0.00,,CLR,0.00,26.00,VWS V14.01,2013-08-20 12:25:00,
2013-08-20 07:29:00,60.0,59.2,29.97,SSE,150,0.0,0.0,97,0.00,,CLR,0.00,26.00,VWS V14.01,2013-08-20 12:29:00,
2013-08-20 07:30:00,60.0,59.2,29.97,SSE,150,0.0,0.0,97,0.00,,CLR,0.00,28.00,VWS V14.01,2013-08-20 12:30:00,
2013-08-20 07:34:00,60.0,59.2,29.97,SSE,150,0.0,0.0,97,0.00,,CLR,0.00,30.00,VWS V14.01,2013-08-20 12:34:00,
2013-08-20 07:35:00,60.0,59.2,29.97,SSE,150,0.0,0.0,97,0.00,,CLR,0.00,30.00,VWS V14.01,2013-08-20 12:35:00,
2013-08-20 07:39:00,60.0,59.2,29.97,SSE,150,0.0,0.0,97,0.00,,CLR,0.00,32.00,VWS V14.01,2013-08-20 12:39:00,
2013-08-20 07:40:00,60.0,59.2,29.97,SSE,150,0.0,0.0,97,0.00,,CLR,0.00,32.00,VWS V14.01,2013-08-20 12:40:00,
2013-08-20 07:44:00,60.0,59.2,29.97,SSE,150,0.0,0.0,97,0.00,,CLR,0.00,33.00,VWS V14.01,2013-08-20 12:44:00,
2013-08-20 07:45:00,60.0,59.2,29.97,SSE,150,0.0,0.0,97,0.00,,CLR,0.00,35.00,VWS V14.01,2013-08-20 12:45:00,
2013-08-20 07:49:00,60.1,59.2,29.97,SSE,150,0.0,0.0,97,0.00,,CLR,0.00,35.00,VWS V14.01,2013-08-20 12:49:00,
2013-08-20 07:50:00,60.1,59.2,29.97,SSE,150,0.0,0.0,97,0.00,,CLR,0.00,37.00,VWS V14.01,2013-08-20 12:50:00,
2013-08-20 07:54:00,60.2,59.3,29.97,SSE,150,0.0,0.0,97,0.00,,CLR,0.00,39.00,VWS V14.01,2013-08-20 12:54:00,
2013-08-20 07:55:00,60.2,59.3,29.97,SSE,150,0.0,0.0,97,0.00,,CLR,0.00,39.00,VWS V14.01,2013-08-20 12:55:00,
2013-08-20 07:59:00,60.3,59.7,29.97,SSE,150,0.0,0.0,98,0.00,,CLR,0.00,40.00,VWS V14.01,2013-08-20 12:59:00,
2013-08-20 08:00:00,60.4,59.8,29.97,SSE,150,0.0,0.0,98,0.00,,CLR,0.00,40.00,VWS V14.01,2013-08-20 13:00:00,
2013-08-20 08:04:00,60.5,59.9,29.97,SSE,150,0.0,0.0,98,0.00,,CLR,0.00,42.00,VWS V14.01,2013-08-20 13:04:00,
2013-08-20 08:05:00,60.6,60.0,29.97,SSE,150,0.0,0.0,98,0.00,,CLR,0.00,42.00,VWS V14.01,2013-08-20 13:05:00,
2013-08-20 08:09:00,60.8,60.2,29.97,SSE,150,0.0,0.0,98,0.00,,CLR,0.00,46.00,VWS V14.01,2013-08-20 13:09:00,
2013-08-20 08:10:00,60.8,60.2,29.97,SSE,150,0.0,0.0,98,0.00,,CLR,0.00,49.00,VWS V14.01,2013-08-20 13:10:00,
2013-08-20 08:14:00,61.0,60.4,29.97,SSE,150,0.0,0.0,98,0.00,,CLR,0.00,53.00,VWS V14.01,2013-08-20 13:14:00,
2013-08-20 08:15:00,61.1,60.5,29.98,SSE,150,0.0,0.0,98,0.00,,CLR,0.00,102.00,VWS V14.01,2013-08-20 13:15:00,
2013-08-20 08:19:00,61.2,60.6,29.98,SSE,150,0.0,0.0,98,0.00,,CLR,0.00,248.00,VWS V14.01,2013-08-20 13:19:00,
2013-08-20 08:20:00,61.4,60.8,29.98,SSE,150,0.0,0.0,98,0.00,,CLR,0.00,251.00,VWS V14.01,2013-08-20 13:20:00,
2013-08-20 08:24:00,62.8,62.5,29.98,SSE,150,0.0,1.0,99,0.00,,CLR,0.00,250.00,VWS V14.01,2013-08-20 13:24:00,
2013-08-20 08:25:00,63.1,62.8,29.98,SSE,150,0.0,1.0,99,0.00,,CLR,0.00,255.00,VWS V14.01,2013-08-20 13:25:00,
2013-08-20 08:29:00,63.7,63.4,29.98,SSE,150,0.0,0.0,99,0.00,,CLR,0.00,265.00,VWS V14.01,2013-08-20 13:29:00,
2013-08-20 08:30:00,64.0,63.7,29.98,SSE,150,0.0,0.0,99,0.00,,CLR,0.00,271.00,VWS V14.01,2013-08-20 13:30:00,
2013-08-20 08:34:00,64.6,64.3,29.98,SSE,150,0.0,0.0,99,0.00,,CLR,0.00,283.00,VWS V14.01,2013-08-20 13:34:00,
2013-08-20 08:35:00,64.8,64.5,29.98,SSE,150,0.0,0.0,99,0.00,,CLR,0.00,285.00,VWS V14.01,2013-08-20 13:35:00,
2013-08-20 08:39:00,65.4,65.1,29.98,SSE,150,0.0,0.0,99,0.00,,CLR,0.00,297.00,VWS V14.01,2013-08-20 13:39:00,
2013-08-20 08:40:00,65.6,65.3,29.98,SSE,150,0.0,0.0,99,0.00,,CLR,0.00,304.00,VWS V14.01,2013-08-20 13:40:00,
2013-08-20 08:44:00,66.3,66.0,29.98,SSE,150,0.0,0.0,99,0.00,,CLR,0.00,308.00,VWS V14.01,2013-08-20 13:44:00,
2013-08-20 08:45:00,66.6,66.0,29.98,SSE,150,0.0,0.0,98,0.00,,CLR,0.00,320.00,VWS V14.01,2013-08-20 13:45:00,
2013-08-20 08:49:00,67.5,66.6,29.98,SSE,150,0.0,0.0,97,0.00,,CLR,0.00,332.00,VWS V14.01,2013-08-20 13:49:00,
2013-08-20 08:50:00,67.7,66.8,29.98,SSE,150,0.0,0.0,97,0.00,,CLR,0.00,343.00,VWS V14.01,2013-08-20 13:50:00,
2013-08-20 08:54:00,68.4,66.9,29.98,SSE,150,0.0,0.0,95,0.00,,CLR,0.00,353.00,VWS V14.01,2013-08-20 13:54:00,
2013-08-20 08:55:00,68.7,67.2,29.98,SSE,150,0.0,0.0,95,0.00,,CLR,0.00,357.00,VWS V14.01,2013-08-20 13:55:00,
2013-08-20 08:59:00,69.4,67.6,29.98,SSE,150,0.0,1.0,94,0.00,,CLR,0.00,374.00,VWS V14.01,2013-08-20 13:59:00,
2013-08-20 09:00:00,69.6,67.8,29.98,SSE,150,0.0,1.0,94,0.00,,CLR,0.00,380.00,VWS V14.01,2013-08-20 14:00:00,
2013-08-20 09:04:00,70.1,68.0,29.98,SSE,150,0.0,2.0,93,0.00,,CLR,0.00,397.00,VWS V14.01,2013-08-20 14:04:00,
2013-08-20 09:05:00,70.3,68.2,29.98,SSE,150,0.0,2.0,93,0.00,,CLR,0.00,397.00,VWS V14.01,2013-08-20 14:05:00,
2013-08-20 09:09:00,70.8,68.4,29.98,SSE,150,0.0,0.0,92,0.00,,CLR,0.00,417.00,VWS V14.01,2013-08-20 14:09:00,
2013-08-20 09:10:00,70.8,68.4,29.98,SSE,150,0.0,0.0,92,0.00,,CLR,0.00,417.00,VWS V14.01,2013-08-20 14:10:00,
2013-08-20 09:14:00,71.4,69.0,29.98,SSE,150,0.0,0.0,92,0.00,,CLR,0.00,436.00,VWS V14.01,2013-08-20 14:14:00,
2013-08-20 09:15:00,71.5,69.4,29.98,SSE,150,0.0,0.0,93,0.00,,CLR,0.00,439.00,VWS V14.01,2013-08-20 14:15:00,
2013-08-20 09:19:00,71.9,68.8,29.98,SSE,150,0.0,0.0,90,0.00,,CLR,0.00,455.00,VWS V14.01,2013-08-20 14:19:00,
2013-08-20 09:20:00,72.0,68.3,29.98,SSE,150,0.0,0.0,88,0.00,,CLR,0.00,457.00,VWS V14.01,2013-08-20 14:20:00,
2013-08-20 09:24:00,72.6,68.5,29.98,SSE,150,0.0,0.0,87,0.00,,CLR,0.00,471.00,VWS V14.01,2013-08-20 14:24:00,
2013-08-20 09:25:00,72.8,68.7,29.98,SSE,150,0.0,0.0,87,0.00,,CLR,0.00,475.00,VWS V14.01,2013-08-20 14:25:00,
2013-08-20 09:29:00,73.3,68.9,29.98,SW,230,0.0,2.0,86,0.00,,CLR,0.00,485.00,VWS V14.01,2013-08-20 14:29:00,
2013-08-20 09:30:00,73.3,68.5,29.98,SW,230,0.0,2.0,85,0.00,,CLR,0.00,485.00,VWS V14.01,2013-08-20 14:30:00,
2013-08-20 09:34:00,73.5,68.7,29.98,SSE,156,0.0,2.0,85,0.00,,CLR,0.00,501.00,VWS V14.01,2013-08-20 14:34:00,
2013-08-20 09:35:00,73.6,68.8,29.98,SSE,156,0.0,2.0,85,0.00,,CLR,0.00,501.00,VWS V14.01,2013-08-20 14:35:00,
2013-08-20 09:39:00,74.0,69.6,29.98,SW,233,1.0,1.0,86,0.00,,CLR,0.00,512.00,VWS V14.01,2013-08-20 14:39:00,
2013-08-20 09:40:00,74.1,69.3,29.98,South,171,0.0,1.0,85,0.00,,CLR,0.00,517.00,VWS V14.01,2013-08-20 14:40:00,
2013-08-20 09:44:00,74.5,68.7,29.98,South,184,0.0,0.0,82,0.00,,CLR,0.00,531.00,VWS V14.01,2013-08-20 14:44:00,
2013-08-20 09:45:00,74.6,68.8,29.98,SSE,148,0.0,2.0,82,0.00,,CLR,0.00,531.00,VWS V14.01,2013-08-20 14:45:00,
2013-08-20 09:49:00,75.0,69.5,29.98,SSE,148,0.0,1.0,83,0.00,,CLR,0.00,541.00,VWS V14.01,2013-08-20 14:49:00,
2013-08-20 09:50:00,75.1,69.6,29.98,SSE,153,0.0,1.0,83,0.00,,CLR,0.00,547.00,VWS V14.01,2013-08-20 14:50:00,
2013-08-20 09:54:00,75.4,69.5,29.98,SW,236,0.0,2.0,82,0.00,,CLR,0.00,561.00,VWS V14.01,2013-08-20 14:54:00,
2013-08-20 09:55:00,75.5,69.6,29.98,SW,236,0.0,2.0,82,0.00,,CLR,0.00,564.00,VWS V14.01,2013-08-20 14:55:00,
2013-08-20 09:59:00,75.9,69.7,29.98,East,98,1.0,3.0,81,0.00,,CLR,0.00,573.00,VWS V14.01,2013-08-20 14:59:00,
2013-08-20 10:00:00,76.0,70.5,29.98,East,97,0.0,3.0,83,0.00,,CLR,0.00,578.00,VWS V14.01,2013-08-20 15:00:00,
2013-08-20 10:05:00,76.2,69.9,29.98,SSE,154,1.0,1.0,81,0.00,,CLR,0.00,589.00,VWS V14.01,2013-08-20 15:05:00,
2013-08-20 10:10:00,76.5,68.8,29.98,East,99,0.0,2.0,77,0.00,,CLR,0.00,601.00,VWS V14.01,2013-08-20 15:10:00,
2013-08-20 10:15:00,76.7,69.7,29.98,West,270,0.0,4.0,79,0.00,,CLR,0.00,619.00,VWS V14.01,2013-08-20 15:15:00,
2013-08-20 10:20:00,77.0,70.4,29.98,NNW,331,0.0,4.0,80,0.00,,CLR,0.00,626.00,VWS V14.01,2013-08-20 15:20:00,
2013-08-20 10:25:00,77.1,69.3,29.98,West,259,3.0,4.0,77,0.00,,CLR,0.00,643.00,VWS V14.01,2013-08-20 15:25:00,
2013-08-20 10:30:00,77.1,69.0,29.99,WSW,252,0.0,6.0,76,0.00,,CLR,0.00,657.00,VWS V14.01,2013-08-20 15:30:00,
2013-08-20 10:35:00,77.5,69.7,29.99,West,279,1.0,5.0,77,0.00,,CLR,0.00,668.00,VWS V14.01,2013-08-20 15:35:00,
2013-08-20 10:40:00,77.7,69.9,29.99,NW,307,2.0,3.0,77,0.00,,CLR,0.00,677.00,VWS V14.01,2013-08-20 15:40:00,
2013-08-20 10:45:00,77.9,68.9,29.98,WSW,249,0.0,3.0,74,0.00,,CLR,0.00,684.00,VWS V14.01,2013-08-20 15:45:00,
2013-08-20 10:50:00,78.2,69.6,29.98,WSW,246,0.0,4.0,75,0.00,,CLR,0.00,693.00,VWS V14.01,2013-08-20 15:50:00,
2013-08-20 10:55:00,78.4,69.0,29.98,SW,229,0.0,4.0,73,0.00,,CLR,0.00,712.00,VWS V14.01,2013-08-20 15:55:00,
2013-08-20 11:00:00,78.8,69.4,29.98,ESE,116,0.0,3.0,73,0.00,,CLR,0.00,717.00,VWS V14.01,2013-08-20 16:00:00,
2013-08-20 11:05:00,78.9,69.1,29.98,WSW,242,3.0,3.0,72,0.00,,CLR,0.00,745.00,VWS V14.01,2013-08-20 16:05:00,
2013-08-20 11:10:00,79.3,69.9,29.98,SE,146,2.0,3.0,73,0.00,,CLR,0.00,761.00,VWS V14.01,2013-08-20 16:10:00,
2013-08-20 11:15:00,79.6,70.2,29.98,ESE,119,0.0,2.0,73,0.00,,CLR,0.00,809.00,VWS V14.01,2013-08-20 16:15:00,
2013-08-20 11:20:00,79.5,68.4,29.98,SSW,200,2.0,2.0,69,0.00,,CLR,0.00,851.00,VWS V14.01,2013-08-20 16:20:00,
2013-08-20 11:25:00,78.6,68.4,29.98,ESE,102,0.0,2.0,71,0.00,,CLR,0.00,211.00,VWS V14.01,2013-08-20 16:25:00,
2013-08-20 11:26:00,78.6,68.4,29.98,ESE,102,0.0,0.0,71,0.00,,CLR,0.00,202.00,VWS V14.01,2013-08-20 16:26:00,
2013-08-20 11:30:00,77.9,68.6,29.98,SE,137,0.0,2.0,73,0.00,,CLR,0.00,200.00,VWS V14.01,2013-08-20 16:30:00,
2013-08-20 11:31:00,77.9,68.6,29.98,SE,137,0.0,0.0,73,0.00,,CLR,0.00,200.00,VWS V14.01,2013-08-20 16:31:00,
2013-08-20 11:35:00,79.1,70.1,29.98,SE,137,0.0,1.0,74,0.00,,CLR,0.00,967.00,VWS V14.01,2013-08-20 16:35:00,
2013-08-20 11:36:00,79.2,70.2,29.98,SE,137,0.0,0.0,74,0.00,,CLR,0.00,967.00,VWS V14.01,2013-08-20 16:36:00,
2013-08-20 11:40:00,80.0,69.3,29.98,ESE,120,0.0,2.0,70,0.00,,CLR,0.00,930.00,VWS V14.01,2013-08-20 16:40:00,
2013-08-20 11:41:00,80.0,68.9,29.98,ESE,120,0.0,1.0,69,0.00,,CLR,0.00,376.00,VWS V14.01,2013-08-20 16:41:00,
2013-08-20 11:45:00,79.9,69.2,29.98,WNW,286,1.0,4.0,70,0.00,,CLR,0.00,933.00,VWS V14.01,2013-08-20 16:45:00,
2013-08-20 11:46:00,80.0,69.8,29.98,WNW,286,0.0,1.0,71,0.00,,CLR,0.00,933.00,VWS V14.01,2013-08-20 16:46:00,
2013-08-20 11:50:00,80.6,69.1,29.98,East,99,0.0,3.0,68,0.00,,CLR,0.00,882.00,VWS V14.01,2013-08-20 16:50:00,
2013-08-20 11:51:00,80.7,70.8,29.98,WSW,256,4.0,4.0,72,0.00,,CLR,0.00,882.00,VWS V14.01,2013-08-20 16:51:00,
2013-08-20 11:55:00,80.3,68.3,29.98,WSW,255,2.0,5.0,67,0.00,,CLR,0.00,197.00,VWS V14.01,2013-08-20 16:55:00,
2013-08-20 11:56:00,80.0,68.5,29.98,WSW,255,0.0,3.0,68,0.00,,CLR,0.00,197.00,VWS V14.01,2013-08-20 16:56:00,
2013-08-20 12:00:00,80.1,70.3,29.98,SSE,153,0.0,3.0,72,0.00,,CLR,0.00,933.00,VWS V14.01,2013-08-20 17:00:00,
2013-08-20 12:01:00,80.3,70.5,29.98,SE,133,2.0,2.0,72,0.00,,SCT032,0.00,937.00,VWS V14.01,2013-08-20 17:01:00,
2013-08-20 12:05:00,80.6,69.9,29.98,ESE,122,0.0,3.0,70,0.00,,CLR,0.00,937.00,VWS V14.01,2013-08-20 17:05:00,
2013-08-20 12:06:00,80.4,69.3,29.98,SE,130,1.0,1.0,69,0.00,,SCT032,0.00,937.00,VWS V14.01,2013-08-20 17:06:00,
2013-08-20 12:10:00,80.0,69.3,29.98,ESE,103,0.0,2.0,70,0.00,,CLR,0.00,258.00,VWS V14.01,2013-08-20 17:10:00,
2013-08-20 12:11:00,79.9,68.8,29.98,South,188,0.0,2.0,69,0.00,,SCT032,0.00,350.00,VWS V14.01,2013-08-20 17:11:00,
2013-08-20 12:15:00,79.7,70.7,29.97,South,182,0.0,2.0,74,0.00,,CLR,0.00,403.00,VWS V14.01,2013-08-20 17:15:00,
2013-08-20 12:16:00,79.7,70.7,29.97,NW,317,1.0,4.0,74,0.00,,SCT032,0.00,403.00,VWS V14.01,2013-08-20 17:16:00,
2013-08-20 12:20:00,79.3,67.8,29.97,ESE,122,0.0,4.0,68,0.00,,CLR,0.00,227.00,VWS V14.01,2013-08-20 17:20:00,
2013-08-20 12:21:00,79.1,68.1,29.97,ESE,122,0.0,0.0,69,0.00,,SCT032,0.00,227.00,VWS V14.01,2013-08-20 17:21:00,
2013-08-20 12:25:00,78.7,68.1,29.97,ESE,122,0.0,2.0,70,0.00,,CLR,0.00,243.00,VWS V14.01,2013-08-20 17:25:00,
2013-08-20 12:26:00,78.7,68.1,29.97,ESE,122,0.0,0.0,70,0.00,,SCT032,0.00,243.00,VWS V14.01,2013-08-20 17:26:00,
2013-08-20 12:30:00,79.2,69.0,29.97,SW,231,1.0,2.0,71,0.00,,CLR,0.00,279.00,VWS V14.01,2013-08-20 17:30:00,
2013-08-20 12:31:00,79.3,69.1,29.97,SW,231,0.0,1.0,71,0.00,,SCT032,0.00,239.00,VWS V14.01,2013-08-20 17:31:00,
2013-08-20 12:35:00,79.1,67.6,29.97,West,272,0.0,5.0,68,0.00,,CLR,0.00,251.00,VWS V14.01,2013-08-20 17:35:00,
2013-08-20 12:36:00,79.0,68.4,29.97,West,272,0.0,0.0,70,0.00,,SCT032,0.00,267.00,VWS V14.01,2013-08-20 17:36:00,
2013-08-20 12:40:00,78.8,68.6,29.97,West,272,0.0,0.0,71,0.00,,CLR,0.00,220.00,VWS V14.01,2013-08-20 17:40:00,
2013-08-20 12:41:00,78.8,69.0,29.97,West,272,0.0,0.0,72,0.00,,SCT032,0.00,211.00,VWS V14.01,2013-08-20 17:41:00,
2013-08-20 12:45:00,78.6,70.4,29.97,West,272,0.0,0.0,76,0.00,,CLR,0.00,311.00,VWS V14.01,2013-08-20 17:45:00,
2013-08-20 12:46:00,78.9,69.5,29.97,West,272,0.0,1.0,73,0.00,,SCT032,0.00,962.00,VWS V14.01,2013-08-20 17:46:00,
2013-08-20 12:50:00,80.2,69.5,29.97,West,272,0.0,2.0,70,0.00,,CLR,0.00,951.00,VWS V14.01,2013-08-20 17:50:00,
2013-08-20 12:51:00,80.5,71.5,29.97,West,272,0.0,2.0,74,0.00,,SCT032,0.00,951.00,VWS V14.01,2013-08-20 17:51:00,
2013-08-20 12:55:00,80.7,68.7,29.97,West,267,0.0,4.0,67,0.00,,CLR,0.00,882.00,VWS V14.01,2013-08-20 17:55:00,
2013-08-20 12:57:00,80.8,68.8,29.97,West,267,0.0,1.0,67,0.00,,SCT032,0.00,229.00,VWS V14.01,2013-08-20 17:57:00,
2013-08-20 13:00:00,80.6,68.6,29.96,East,98,0.0,2.0,67,0.00,,CLR,0.00,260.00,VWS V14.01,2013-08-20 18:00:00,
2013-08-20 13:02:00,80.7,70.4,29.96,East,98,0.0,0.0,71,0.00,,BKN055,0.00,979.00,VWS V14.01,2013-08-20 18:02:00,
2013-08-20 13:05:00,80.5,68.1,29.96,East,98,0.0,1.0,66,0.00,,CLR,0.00,179.00,VWS V14.01,2013-08-20 18:05:00,
2013-08-20 13:07:00,80.3,68.3,29.96,East,98,0.0,0.0,67,0.00,,BKN055,0.00,151.00,VWS V14.01,2013-08-20 18:07:00,
2013-08-20 13:10:00,79.3,69.9,29.96,East,98,0.0,0.0,73,0.00,,CLR,0.00,120.00,VWS V14.01,2013-08-20 18:10:00,
2013-08-20 13:12:00,78.8,69.4,29.96,East,98,0.0,0.0,73,0.00,,BKN055,0.00,134.00,VWS V14.01,2013-08-20 18:12:00,
2013-08-20 13:15:00,78.1,68.3,29.96,East,98,0.0,1.0,72,0.00,,CLR,0.00,151.00,VWS V14.01,2013-08-20 18:15:00,
2013-08-20 13:17:00,78.1,69.1,29.96,East,98,0.0,0.0,74,0.00,,BKN055,0.00,158.00,VWS V14.01,2013-08-20 18:17:00,
2013-08-20 13:20:00,78.2,69.6,29.96,East,98,0.0,0.0,75,0.00,,CLR,0.00,178.00,VWS V14.01,2013-08-20 18:20:00,
2013-08-20 13:22:00,78.2,69.6,29.96,East,98,0.0,0.0,75,0.00,,BKN055,0.00,183.00,VWS V14.01,2013-08-20 18:22:00,
2013-08-20 13:25:00,78.0,69.4,29.96,East,98,0.0,0.0,75,0.00,,CLR,0.00,188.00,VWS V14.01,2013-08-20 18:25:00,
2013-08-20 13:27:00,78.0,69.8,29.96,East,98,0.0,0.0,76,0.00,,BKN055,0.00,207.00,VWS V14.01,2013-08-20 18:27:00,
2013-08-20 13:30:00,78.1,69.5,29.96,East,98,0.0,0.0,75,0.00,,CLR,0.00,374.00,VWS V14.01,2013-08-20 18:30:00,
2013-08-20 13:32:00,78.3,70.5,29.96,East,98,0.0,0.0,77,0.00,,BKN055,0.00,352.00,VWS V14.01,2013-08-20 18:32:00,
2013-08-20 13:35:00,79.1,70.9,29.96,East,98,0.0,0.0,76,0.00,,CLR,0.00,468.00,VWS V14.01,2013-08-20 18:35:00,
2013-08-20 13:37:00,79.8,70.8,29.96,East,98,0.0,1.0,74,0.00,,BKN055,0.00,468.00,VWS V14.01,2013-08-20 18:37:00,
2013-08-20 13:40:00,81.2,70.1,29.96,East,98,0.0,1.0,69,0.00,,CLR,0.00,1011.00,VWS V14.01,2013-08-20 18:40:00,
2013-08-20 13:42:00,81.6,68.7,29.96,East,85,0.0,2.0,65,0.00,,BKN055,0.00,1013.00,VWS V14.01,2013-08-20 18:42:00,
2013-08-20 13:45:00,82.9,69.0,29.95,SSE,151,0.0,3.0,63,0.00,,CLR,0.00,998.00,VWS V14.01,2013-08-20 18:45:00,
2013-08-20 13:47:00,83.2,70.2,29.95,ESE,122,2.0,5.0,65,0.00,,BKN055,0.00,1016.00,VWS V14.01,2013-08-20 18:47:00,
2013-08-20 13:50:00,83.1,69.2,29.95,SE,137,1.0,5.0,63,0.00,,CLR,0.00,995.00,VWS V14.01,2013-08-20 18:50:00,
2013-08-20 13:52:00,82.7,68.4,29.95,SE,137,0.0,2.0,62,0.00,,BKN055,0.00,292.00,VWS V14.01,2013-08-20 18:52:00,
2013-08-20 13:55:00,81.6,66.9,29.95,SE,137,0.0,2.0,61,0.00,,CLR,0.00,258.00,VWS V14.01,2013-08-20 18:55:00,
2013-08-20 13:57:00,81.2,68.3,29.95,East,88,0.0,2.0,65,0.00,,BKN055,0.00,258.00,VWS V14.01,2013-08-20 18:57:00,
2013-08-20 14:00:00,80.6,67.3,29.95,SE,134,1.0,2.0,64,0.00,,CLR,0.00,381.00,VWS V14.01,2013-08-20 19:00:00,
2013-08-20 14:02:00,80.7,67.4,29.95,SE,131,0.0,3.0,64,0.00,,CLR,0.00,381.00,VWS V14.01,2013-08-20 19:02:00,
2013-08-20 14:05:00,81.6,68.2,29.95,SW,222,1.0,3.0,64,0.00,,CLR,0.00,918.00,VWS V14.01,2013-08-20 19:05:00,
2013-08-20 14:07:00,82.0,69.1,29.95,SW,222,0.0,1.0,65,0.00,,CLR,0.00,918.00,VWS V14.01,2013-08-20 19:07:00,
2013-08-20 14:10:00,81.8,67.5,29.95,SE,129,0.0,2.0,62,0.00,,CLR,0.00,193.00,VWS V14.01,2013-08-20 19:10:00,
2013-08-20 14:12:00,81.4,67.6,29.95,SE,129,0.0,0.0,63,0.00,,CLR,0.00,202.00,VWS V14.01,2013-08-20 19:12:00,
2013-08-20 14:15:00,80.5,68.5,29.94,SE,129,0.0,1.0,67,0.00,,CLR,0.00,304.00,VWS V14.01,2013-08-20 19:15:00,
2013-08-20 14:17:00,80.4,68.4,29.94,SE,129,0.0,0.0,67,0.00,,CLR,0.00,304.00,VWS V14.01,2013-08-20 19:17:00,
2013-08-20 14:20:00,81.5,69.5,29.94,ESE,122,0.0,3.0,67,0.00,,CLR,0.00,858.00,VWS V14.01,2013-08-20 19:20:00,
2013-08-20 14:22:00,82.1,70.9,29.94,WSW,240,1.0,2.0,69,0.00,,CLR,0.00,851.00,VWS V14.01,2013-08-20 19:22:00,
2013-08-20 14:25:00,82.5,69.1,29.94,West,267,2.0,4.0,64,0.00,,CLR,0.00,844.00,VWS V14.01,2013-08-20 19:25:00,
2013-08-20 14:27:00,82.5,67.7,29.94,WNW,283,0.0,4.0,61,0.00,,CLR,0.00,856.00,VWS V14.01,2013-08-20 19:27:00,
2013-08-20 14:30:00,82.8,67.5,29.94,SE,136,0.0,4.0,60,0.00,,CLR,0.00,186.00,VWS V14.01,2013-08-20 19:30:00,
2013-08-20 14:32:00,82.4,67.6,29.94,SE,143,0.0,2.0,61,0.00,,CLR,0.00,186.00,VWS V14.01,2013-08-20 19:32:00,
2013-08-20 14:35:00,82.0,67.7,29.94,SE,142,0.0,2.0,62,0.00,,CLR,0.00,889.00,VWS V14.01,2013-08-20 19:35:00,
2013-08-20 14:37:00,82.2,67.9,29.94,SE,142,0.0,0.0,62,0.00,,CLR,0.00,889.00,VWS V14.01,2013-08-20 19:37:00,
2013-08-20 14:40:00,82.1,67.3,29.94,ESE,114,0.0,3.0,61,0.00,,CLR,0.00,237.00,VWS V14.01,2013-08-20 19:40:00,
2013-08-20 14:42:00,82.3,69.8,29.94,East,90,2.0,2.0,66,0.00,,CLR,0.00,863.00,VWS V14.01,2013-08-20 19:42:00,
2013-08-20 14:45:00,83.0,67.7,29.94,WSW,242,2.0,4.0,60,0.00,,CLR,0.00,847.00,VWS V14.01,2013-08-20 19:45:00,
2013-08-20 14:47:00,83.1,67.3,29.94,North,350,1.0,4.0,59,0.00,,CLR,0.00,842.00,VWS V14.01,2013-08-20 19:47:00,
2013-08-20 14:50:00,83.1,67.8,29.94,West,278,1.0,4.0,60,0.00,,CLR,0.00,842.00,VWS V14.01,2013-08-20 19:50:00,
2013-08-20 14:52:00,83.2,68.4,29.94,SW,229,1.0,3.0,61,0.00,,CLR,0.00,833.00,VWS V14.01,2013-08-20 19:52:00,
2013-08-20 14:55:00,83.5,69.6,29.94,SW,232,0.0,3.0,63,0.00,,CLR,0.00,846.00,VWS V14.01,2013-08-20 19:55:00,
2013-08-20 14:57:00,83.9,70.4,29.94,SSE,155,0.0,5.0,64,0.00,,CLR,0.00,847.00,VWS V14.01,2013-08-20 19:57:00,
2013-08-20 15:00:00,84.3,70.3,29.93,WSW,251,3.0,5.0,63,0.00,,CLR,0.00,831.00,VWS V14.01,2013-08-20 20:00:00,
2013-08-20 15:02:00,84.1,68.2,29.93,WSW,255,0.0,5.0,59,0.00,,FEW048,0.00,847.00,VWS V14.01,2013-08-20 20:02:00,
2013-08-20 15:05:00,83.8,68.0,29.93,West,265,0.0,5.0,59,0.00,,CLR,0.00,872.00,VWS V14.01,2013-08-20 20:05:00,
2013-08-20 15:07:00,83.4,67.6,29.93,SSE,157,0.0,3.0,59,0.00,,FEW048,0.00,209.00,VWS V14.01,2013-08-20 20:07:00,
2013-08-20 15:10:00,82.9,68.6,29.93,West,264,1.0,3.0,62,0.00,,CLR,0.00,842.00,VWS V14.01,2013-08-20 20:10:00,
2013-08-20 15:12:00,82.5,66.7,29.93,West,264,0.0,1.0,59,0.00,,FEW048,0.00,176.00,VWS V14.01,2013-08-20 20:12:00,
2013-08-20 15:15:00,81.6,68.7,29.93,West,263,0.0,2.0,65,0.00,,CLR,0.00,171.00,VWS V14.01,2013-08-20 20:15:00,
2013-08-20 15:17:00,81.0,67.7,29.93,West,263,1.0,1.0,64,0.00,,FEW048,0.00,171.00,VWS V14.01,2013-08-20 20:17:00,
2013-08-20 15:20:00,80.5,66.3,29.93,ESE,106,0.0,3.0,62,0.00,,CLR,0.00,174.00,VWS V14.01,2013-08-20 20:20:00,
2013-08-20 15:22:00,80.7,66.9,29.93,ESE,105,0.0,0.0,63,0.00,,FEW048,0.00,793.00,VWS V14.01,2013-08-20 20:22:00,
2013-08-20 15:25:00,81.9,67.6,29.93,East,101,0.0,1.0,62,0.00,,CLR,0.00,788.00,VWS V14.01,2013-08-20 20:25:00,
2013-08-20 15:27:00,82.7,67.4,29.93,WSW,245,0.0,4.0,60,0.00,,FEW048,0.00,772.00,VWS V14.01,2013-08-20 20:27:00,
2013-08-20 15:30:00,83.2,70.7,29.92,West,274,0.0,4.0,66,0.00,,CLR,0.00,773.00,VWS V14.01,2013-08-20 20:30:00,
2013-08-20 15:32:00,83.7,68.8,29.92,West,274,0.0,1.0,61,0.00,,FEW048,0.00,768.00,VWS V14.01,2013-08-20 20:32:00,
2013-08-20 15:35:00,83.8,65.9,29.92,West,277,0.0,2.0,55,0.00,,CLR,0.00,759.00,VWS V14.01,2013-08-20 20:35:00,
2013-08-20 15:37:00,83.9,69.0,29.92,East,84,3.0,4.0,61,0.00,,FEW048,0.00,740.00,VWS V14.01,2013-08-20 20:37:00,
2013-08-20 15:40:00,83.9,67.1,29.92,South,184,2.0,5.0,57,0.00,,CLR,0.00,729.00,VWS V14.01,2013-08-20 20:40:00,
2013-08-20 15:42:00,83.8,66.4,29.92,South,182,0.0,2.0,56,0.00,,FEW048,0.00,729.00,VWS V14.01,2013-08-20 20:42:00,
2013-08-20 15:45:00,84.1,66.7,29.92,East,88,1.0,4.0,56,0.00,,CLR,0.00,735.00,VWS V14.01,2013-08-20 20:45:00,
2013-08-20 15:47:00,84.4,68.0,29.92,ESE,115,0.0,2.0,58,0.00,,FEW048,0.00,724.00,VWS V14.01,2013-08-20 20:47:00,
2013-08-20 15:50:00,84.4,68.5,29.92,SE,132,0.0,2.0,59,0.00,,CLR,0.00,578.00,VWS V14.01,2013-08-20 20:50:00,
2013-08-20 15:53:00,84.3,66.9,29.92,WSW,241,0.0,3.0,56,0.00,,FEW048,0.00,722.00,VWS V14.01,2013-08-20 20:53:00,
2013-08-20 15:55:00,84.2,64.7,29.92,South,182,0.0,3.0,52,0.00,,CLR,0.00,710.00,VWS V14.01,2013-08-20 20:55:00,
2013-08-20 15:58:00,84.3,65.3,29.92,ESE,116,0.0,2.0,53,0.00,,FEW048,0.00,703.00,VWS V14.01,2013-08-20 20:58:00,
2013-08-20 16:00:00,84.4,68.5,29.92,South,181,1.0,2.0,59,0.00,,CLR,0.00,703.00,VWS V14.01,2013-08-20 21:00:00,
2013-08-20 16:03:00,84.4,65.4,29.92,South,186,0.0,2.0,53,0.00,,CLR,0.00,722.00,VWS V14.01,2013-08-20 21:03:00,
2013-08-20 16:05:00,84.2,65.8,29.92,SSE,161,0.0,2.0,54,0.00,,CLR,0.00,731.00,VWS V14.01,2013-08-20 21:05:00,
2013-08-20 16:08:00,84.3,64.8,29.92,SSE,161,0.0,1.0,52,0.00,,CLR,0.00,726.00,VWS V14.01,2013-08-20 21:08:00,
2013-08-20 16:10:00,84.5,66.1,29.92,SE,146,2.0,4.0,54,0.00,,CLR,0.00,684.00,VWS V14.01,2013-08-20 21:10:00,
2013-08-20 16:13:00,84.5,66.6,29.92,South,188,3.0,3.0,55,0.00,,CLR,0.00,668.00,VWS V14.01,2013-08-20 21:13:00,
2013-08-20 16:15:00,84.3,65.3,29.92,SW,227,1.0,3.0,53,0.00,,CLR,0.00,650.00,VWS V14.01,2013-08-20 21:15:00,
2013-08-20 16:18:00,84.2,68.8,29.92,SW,227,0.0,3.0,60,0.00,,CLR,0.00,656.00,VWS V14.01,2013-08-20 21:18:00,
2013-08-20 16:20:00,84.0,66.1,29.92,West,268,1.0,5.0,55,0.00,,CLR,0.00,657.00,VWS V14.01,2013-08-20 21:20:00,
2013-08-20 16:23:00,83.6,67.3,29.92,West,259,0.0,2.0,58,0.00,,CLR,0.00,657.00,VWS V14.01,2013-08-20 21:23:00,
2013-08-20 16:25:00,82.5,66.7,29.92,West,262,0.0,2.0,59,0.00,,CLR,0.00,151.00,VWS V14.01,2013-08-20 21:25:00,
2013-08-20 16:28:00,81.9,68.5,29.92,West,262,0.0,0.0,64,0.00,,CLR,0.00,199.00,VWS V14.01,2013-08-20 21:28:00,
2013-08-20 16:30:00,81.2,67.4,29.91,West,262,0.0,0.0,63,0.00,,CLR,0.00,628.00,VWS V14.01,2013-08-20 21:30:00,
2013-08-20 16:33:00,81.6,66.9,29.91,West,262,0.0,1.0,61,0.00,,CLR,0.00,617.00,VWS V14.01,2013-08-20 21:33:00,
2013-08-20 16:35:00,82.2,65.5,29.91,West,262,0.0,1.0,57,0.00,,CLR,0.00,606.00,VWS V14.01,2013-08-20 21:35:00,
2013-08-20 16:38:00,83.1,66.8,29.91,West,262,0.0,1.0,58,0.00,,CLR,0.00,598.00,VWS V14.01,2013-08-20 21:38:00,
2013-08-20 16:40:00,83.6,67.3,29.91,SE,138,1.0,1.0,58,0.00,,CLR,0.00,596.00,VWS V14.01,2013-08-20 21:40:00,
2013-08-20 16:43:00,83.8,68.0,29.91,West,259,0.0,2.0,59,0.00,,CLR,0.00,592.00,VWS V14.01,2013-08-20 21:43:00,
2013-08-20 16:45:00,83.8,68.0,29.91,West,266,2.0,3.0,59,0.00,,CLR,0.00,606.00,VWS V14.01,2013-08-20 21:45:00,
2013-08-20 16:48:00,84.0,68.6,29.91,South,188,1.0,2.0,60,0.00,,CLR,0.00,613.00,VWS V14.01,2013-08-20 21:48:00,
2013-08-20 16:50:00,84.0,68.1,29.91,SSW,202,1.0,2.0,59,0.00,,CLR,0.00,606.00,VWS V14.01,2013-08-20 21:50:00,
2013-08-20 16:53:00,84.3,68.9,29.91,SSW,202,0.0,1.0,60,0.00,,CLR,0.00,592.00,VWS V14.01,2013-08-20 21:53:00,
2013-08-20 16:55:00,84.3,68.4,29.91,SSW,202,0.0,1.0,59,0.00,,CLR,0.00,578.00,VWS V14.01,2013-08-20 21:55:00,
2013-08-20 16:58:00,84.5,68.1,29.91,SSW,202,0.0,1.0,58,0.00,,CLR,0.00,578.00,VWS V14.01,2013-08-20 21:58:00,
2013-08-20 17:00:00,84.4,67.5,29.91,East,94,0.0,3.0,57,0.00,,CLR,0.00,571.00,VWS V14.01,2013-08-20 22:00:00,
2013-08-20 17:03:00,84.5,70.5,29.91,SE,145,0.0,3.0,63,0.00,,CLR,0.00,568.00,VWS V14.01,2013-08-20 22:03:00,
2013-08-20 17:05:00,84.4,66.5,29.91,ESE,105,0.0,3.0,55,0.00,,CLR,0.00,571.00,VWS V14.01,2013-08-20 22:05:00,
2013-08-20 17:08:00,84.3,66.4,29.91,ESE,105,1.0,1.0,55,0.00,,CLR,0.00,571.00,VWS V14.01,2013-08-20 22:08:00,
2013-08-20 17:10:00,84.3,67.9,29.91,SSW,197,3.0,3.0,58,0.00,,CLR,0.00,566.00,VWS V14.01,2013-08-20 22:10:00,
2013-08-20 17:13:00,84.2,67.8,29.91,South,190,1.0,3.0,58,0.00,,CLR,0.00,564.00,VWS V14.01,2013-08-20 22:13:00,
2013-08-20 17:15:00,84.0,69.6,29.91,South,190,0.0,3.0,62,0.00,,CLR,0.00,524.00,VWS V14.01,2013-08-20 22:15:00,
2013-08-20 17:18:00,84.0,68.6,29.91,ESE,123,3.0,3.0,60,0.00,,CLR,0.00,513.00,VWS V14.01,2013-08-20 22:18:00,
2013-08-20 17:20:00,84.0,66.1,29.91,SW,234,0.0,3.0,55,0.00,,CLR,0.00,497.00,VWS V14.01,2013-08-20 22:20:00,
2013-08-20 17:23:00,83.8,66.4,29.91,SW,226,0.0,1.0,56,0.00,,CLR,0.00,480.00,VWS V14.01,2013-08-20 22:23:00,
2013-08-20 17:25:00,83.8,68.9,29.91,SW,226,0.0,1.0,61,0.00,,CLR,0.00,473.00,VWS V14.01,2013-08-20 22:25:00,
2013-08-20 17:28:00,83.9,68.5,29.91,SSW,198,1.0,2.0,60,0.00,,CLR,0.00,475.00,VWS V14.01,2013-08-20 22:28:00,
2013-08-20 17:30:00,83.9,65.5,29.91,SSW,198,0.0,2.0,54,0.00,,CLR,0.00,473.00,VWS V14.01,2013-08-20 22:30:00,
2013-08-20 17:33:00,83.7,68.3,29.91,SSW,198,0.0,0.0,60,0.00,,CLR,0.00,452.00,VWS V14.01,2013-08-20 22:33:00,
2013-08-20 17:35:00,83.6,67.3,29.91,South,181,0.0,3.0,58,0.00,,CLR,0.00,438.00,VWS V14.01,2013-08-20 22:35:00,
2013-08-20 17:38:00,83.7,66.3,29.91,South,181,0.0,0.0,56,0.00,,CLR,0.00,427.00,VWS V14.01,2013-08-20 22:38:00,
2013-08-20 17:40:00,83.6,67.8,29.91,South,181,0.0,1.0,59,0.00,,CLR,0.00,418.00,VWS V14.01,2013-08-20 22:40:00,
2013-08-20 17:43:00,83.4,68.1,29.91,South,181,0.0,2.0,60,0.00,,CLR,0.00,408.00,VWS V14.01,2013-08-20 22:43:00,
2013-08-20 17:45:00,83.3,69.9,29.91,South,181,1.0,2.0,64,0.00,,CLR,0.00,401.00,VWS V14.01,2013-08-20 22:45:00,
2013-08-20 17:48:00,83.1,69.7,29.91,WSW,244,0.0,2.0,64,0.00,,CLR,0.00,392.00,VWS V14.01,2013-08-20 22:48:00,
2013-08-20 17:50:00,83.1,67.3,29.91,WSW,243,0.0,2.0,59,0.00,,CLR,0.00,364.00,VWS V14.01,2013-08-20 22:50:00,
2013-08-20 17:53:00,83.0,68.7,29.91,West,263,1.0,3.0,62,0.00,,CLR,0.00,332.00,VWS V14.01,2013-08-20 22:53:00,
2013-08-20 17:55:00,82.9,68.6,29.91,West,263,0.0,3.0,62,0.00,,CLR,0.00,322.00,VWS V14.01,2013-08-20 22:55:00,
2013-08-20 17:58:00,82.7,67.4,29.91,West,263,0.0,1.0,60,0.00,,CLR,0.00,306.00,VWS V14.01,2013-08-20 22:58:00,
2013-08-20 18:00:00,82.7,67.4,29.91,West,263,0.0,1.0,60,0.00,,CLR,0.00,301.00,VWS V14.01,2013-08-20 23:00:00,
2013-08-20 18:03:00,82.6,67.8,29.91,West,263,0.0,1.0,61,0.00,,FEW065,0.00,292.00,VWS V14.01,2013-08-20 23:03:00,
2013-08-20 18:05:00,82.5,66.7,29.91,West,263,0.0,1.0,59,0.00,,CLR,0.00,283.00,VWS V14.01,2013-08-20 23:05:00,
2013-08-20 18:08:00,82.5,68.6,29.91,West,263,0.0,1.0,63,0.00,,FEW065,0.00,271.00,VWS V14.01,2013-08-20 23:08:00,
2013-08-20 18:10:00,82.5,69.1,29.91,West,263,0.0,1.0,64,0.00,,CLR,0.00,271.00,VWS V14.01,2013-08-20 23:10:00,
2013-08-20 18:13:00,82.5,67.7,29.91,West,263,0.0,0.0,61,0.00,,FEW065,0.00,257.00,VWS V14.01,2013-08-20 23:13:00,
2013-08-20 18:15:00,82.5,67.7,29.91,West,263,0.0,0.0,61,0.00,,CLR,0.00,244.00,VWS V14.01,2013-08-20 23:15:00,
2013-08-20 18:18:00,82.5,68.2,29.91,West,263,0.0,1.0,62,0.00,,FEW065,0.00,241.00,VWS V14.01,2013-08-20 23:18:00,
2013-08-20 18:20:00,82.5,67.7,29.91,West,263,0.0,1.0,61,0.00,,CLR,0.00,230.00,VWS V14.01,2013-08-20 23:20:00,
2013-08-20 18:23:00,82.5,68.2,29.91,West,263,0.0,0.0,62,0.00,,FEW065,0.00,223.00,VWS V14.01,2013-08-20 23:23:00,
2013-08-20 18:25:00,82.5,69.6,29.91,West,263,0.0,0.0,65,0.00,,CLR,0.00,216.00,VWS V14.01,2013-08-20 23:25:00,
2013-08-20 18:28:00,82.4,69.5,29.91,West,263,0.0,0.0,65,0.00,,FEW065,0.00,206.00,VWS V14.01,2013-08-20 23:28:00,
2013-08-20 18:30:00,82.5,69.1,29.91,West,263,0.0,0.0,64,0.00,,CLR,0.00,202.00,VWS V14.01,2013-08-20 23:30:00,
2013-08-20 18:33:00,82.8,68.0,29.91,West,263,0.0,1.0,61,0.00,,FEW065,0.00,146.00,VWS V14.01,2013-08-20 23:33:00,
2013-08-20 18:35:00,83.0,68.7,29.91,West,263,0.0,1.0,62,0.00,,CLR,0.00,109.00,VWS V14.01,2013-08-20 23:35:00,
2013-08-20 18:38:00,83.1,68.3,29.91,West,263,0.0,0.0,61,0.00,,FEW065,0.00,76.00,VWS V14.01,2013-08-20 23:38:00,
2013-08-20 18:40:00,83.2,67.9,29.91,West,263,0.0,0.0,60,0.00,,CLR,0.00,95.00,VWS V14.01,2013-08-20 23:40:00,
2013-08-20 18:43:00,83.2,67.9,29.91,West,263,0.0,0.0,60,0.00,,FEW065,0.00,98.00,VWS V14.01,2013-08-20 23:43:00,
2013-08-20 18:45:00,83.1,67.3,29.91,West,263,0.0,0.0,59,0.00,,CLR,0.00,130.00,VWS V14.01,2013-08-20 23:45:00,
2013-08-20 18:49:00,83.1,68.7,29.91,West,263,0.0,0.0,62,0.00,,FEW065,0.00,139.00,VWS V14.01,2013-08-20 23:49:00,
2013-08-20 18:50:00,83.0,68.7,29.91,West,263,0.0,0.0,62,0.00,,CLR,0.00,72.00,VWS V14.01,2013-08-20 23:50:00,
2013-08-20 18:54:00,82.8,68.9,29.91,West,265,0.0,0.0,63,0.00,,FEW065,0.00,70.00,VWS V14.01,2013-08-20 23:54:00,
2013-08-20 18:55:00,82.8,68.5,29.91,West,265,0.0,0.0,62,0.00,,CLR,0.00,53.00,VWS V14.01,2013-08-20 23:55:00,
2013-08-20 18:59:00,82.6,68.3,29.91,West,265,0.0,0.0,62,0.00,,FEW065,0.00,53.00,VWS V14.01,2013-08-20 23:59:00,
2013-08-20 19:00:00,82.6,68.7,29.91,West,265,0.0,0.0,63,0.00,,CLR,0.00,49.00,VWS V14.01,2013-08-21 00:00:00,
2013-08-20 19:04:00,82.4,69.0,29.91,SSW,202,0.0,0.0,64,0.00,,CLR,0.00,97.00,VWS V14.01,2013-08-21 00:04:00,
2013-08-20 19:05:00,82.3,68.9,29.91,SE,129,0.0,1.0,64,0.00,,CLR,0.00,91.00,VWS V14.01,2013-08-21 00:05:00,
2013-08-20 19:09:00,82.0,68.6,29.91,SE,129,0.0,0.0,64,0.00,,CLR,0.00,86.00,VWS V14.01,2013-08-21 00:09:00,
2013-08-20 19:10:00,81.9,68.5,29.91,SE,129,0.0,0.0,64,0.00,,CLR,0.00,79.00,VWS V14.01,2013-08-21 00:10:00,
2013-08-20 19:14:00,81.5,68.2,29.91,West,275,0.0,0.0,64,0.00,,CLR,0.00,65.00,VWS V14.01,2013-08-21 00:14:00,
2013-08-20 19:15:00,81.4,68.5,29.91,West,275,0.0,0.0,65,0.00,,CLR,0.00,65.00,VWS V14.01,2013-08-21 00:15:00,
2013-08-20 19:19:00,81.1,67.8,29.91,West,275,0.0,0.0,64,0.00,,CLR,0.00,33.00,VWS V14.01,2013-08-21 00:19:00,
2013-08-20 19:20:00,80.9,68.0,29.91,West,275,0.0,0.0,65,0.00,,CLR,0.00,35.00,VWS V14.01,2013-08-21 00:20:00,
2013-08-20 19:24:00,80.5,67.2,29.91,West,275,0.0,0.0,64,0.00,,CLR,0.00,30.00,VWS V14.01,2013-08-21 00:24:00,
2013-08-20 19:25:00,80.3,67.5,29.91,West,275,0.0,0.0,65,0.00,,CLR,0.00,32.00,VWS V14.01,2013-08-21 00:25:00,
2013-08-20 19:29:00,80.0,67.6,29.91,West,275,0.0,0.0,66,0.00,,CLR,0.00,23.00,VWS V14.01,2013-08-21 00:29:00,
2013-08-20 19:30:00,79.8,67.4,29.91,West,275,0.0,0.0,66,0.00,,CLR,0.00,23.00,VWS V14.01,2013-08-21 00:30:00,
2013-08-20 19:34:00,79.5,67.2,29.91,West,275,0.0,0.0,66,0.00,,CLR,0.00,19.00,VWS V14.01,2013-08-21 00:34:00,
2013-08-20 19:35:00,79.3,67.0,29.91,West,275,0.0,0.0,66,0.00,,CLR,0.00,18.00,VWS V14.01,2013-08-21 00:35:00,
2013-08-20 19:39:00,79.0,66.7,29.91,West,275,0.0,1.0,66,0.00,,CLR,0.00,16.00,VWS V14.01,2013-08-21 00:39:00,
2013-08-20 19:40:00,78.9,66.6,29.91,West,275,0.0,1.0,66,0.00,,CLR,0.00,14.00,VWS V14.01,2013-08-21 00:40:00,
2013-08-20 19:44:00,78.6,66.3,29.91,West,275,0.0,1.0,66,0.00,,CLR,0.00,11.00,VWS V14.01,2013-08-21 00:44:00,
2013-08-20 19:45:00,78.4,66.6,29.91,West,275,0.0,1.0,67,0.00,,CLR,0.00,11.00,VWS V14.01,2013-08-21 00:45:00,
2013-08-20 19:49:00,78.1,66.3,29.91,West,275,0.0,1.0,67,0.00,,CLR,0.00,7.00,VWS V14.01,2013-08-21 00:49:00,
2013-08-20 19:50:00,78.0,66.2,29.91,West,275,0.0,1.0,67,0.00,,CLR,0.00,7.00,VWS V14.01,2013-08-21 00:50:00,
2013-08-20 19:54:00,77.8,66.4,29.91,West,275,0.0,1.0,68,0.00,,CLR,0.00,0.00,VWS V14.01,2013-08-21 00:54:00,
2013-08-20 19:55:00,77.7,66.3,29.91,West,275,0.0,1.0,68,0.00,,CLR,0.00,0.00,VWS V14.01,2013-08-21 00:55:00,
2013-08-20 19:59:00,77.5,66.1,29.91,West,275,0.0,1.0,68,0.00,,CLR,0.00,0.00,VWS V14.01,2013-08-21 00:59:00,
2013-08-20 20:00:00,77.4,66.0,29.91,West,275,0.0,1.0,68,0.00,,CLR,0.00,0.00,VWS V14.01,2013-08-21 01:00:00,
2013-08-20 20:04:00,77.2,66.2,29.91,West,275,0.0,0.0,69,0.00,,CLR,0.00,0.00,VWS V14.01,2013-08-21 01:04:00,
2013-08-20 20:05:00,77.1,66.6,29.91,West,275,0.0,0.0,70,0.00,,CLR,0.00,0.00,VWS V14.01,2013-08-21 01:05:00,
2013-08-20 20:09:00,76.9,66.8,29.91,West,275,0.0,0.0,71,0.00,,CLR,0.00,0.00,VWS V14.01,2013-08-21 01:09:00,
2013-08-20 20:10:00,76.8,66.3,29.91,West,275,0.0,0.0,70,0.00,,CLR,0.00,0.00,VWS V14.01,2013-08-21 01:10:00,
2013-08-20 20:14:00,76.6,66.1,29.91,West,275,0.0,0.0,70,0.00,,CLR,0.00,0.00,VWS V14.01,2013-08-21 01:14:00,
2013-08-20 20:15:00,76.5,66.0,29.91,West,275,0.0,0.0,70,0.00,,CLR,0.00,0.00,VWS V14.01,2013-08-21 01:15:00,
2013-08-20 20:19:00,76.2,66.1,29.91,West,275,0.0,0.0,71,0.00,,CLR,0.00,0.00,VWS V14.01,2013-08-21 01:19:00,
2013-08-20 20:20:00,76.2,66.1,29.91,West,275,0.0,0.0,71,0.00,,CLR,0.00,0.00,VWS V14.01,2013-08-21 01:20:00,
2013-08-20 20:25:00,75.9,66.2,29.91,West,275,0.0,1.0,72,0.00,,CLR,0.00,0.00,VWS V14.01,2013-08-21 01:25:00,
2013-08-20 20:30:00,75.7,66.0,29.92,West,275,0.0,0.0,72,0.00,,CLR,0.00,0.00,VWS V14.01,2013-08-21 01:30:00,
2013-08-20 20:35:00,75.5,66.6,29.92,West,275,0.0,0.0,74,0.00,,CLR,0.00,0.00,VWS V14.01,2013-08-21 01:35:00,
2013-08-20 20:40:00,75.2,66.3,29.92,West,275,0.0,0.0,74,0.00,,CLR,0.00,0.00,VWS V14.01,2013-08-21 01:40:00,
2013-08-20 20:45:00,75.1,66.2,29.92,West,275,0.0,0.0,74,0.00,,CLR,0.00,0.00,VWS V14.01,2013-08-21 01:45:00,
2013-08-20 20:50:00,74.8,66.0,29.92,West,275,0.0,0.0,74,0.00,,CLR,0.00,0.00,VWS V14.01,2013-08-21 01:50:00,
2013-08-20 20:55:00,74.7,65.9,29.92,West,275,0.0,0.0,74,0.00,,CLR,0.00,0.00,VWS V14.01,2013-08-21 01:55:00,
2013-08-20 21:00:00,74.5,65.7,29.92,West,275,0.0,1.0,74,0.00,,CLR,0.00,0.00,VWS V14.01,2013-08-21 02:00:00,
2013-08-20 21:01:00,74.5,65.7,29.92,West,275,0.0,0.0,74,0.00,,CLR,0.00,0.00,VWS V14.01,2013-08-21 02:01:00,
2013-08-20 21:05:00,74.4,65.6,29.92,West,275,0.0,0.0,74,0.00,,CLR,0.00,0.00,VWS V14.01,2013-08-21 02:05:00,
2013-08-20 21:06:00,74.3,65.5,29.92,West,275,0.0,0.0,74,0.00,,CLR,0.00,0.00,VWS V14.01,2013-08-21 02:06:00,
2013-08-20 21:10:00,74.2,65.4,29.92,West,275,0.0,2.0,74,0.00,,CLR,0.00,0.00,VWS V14.01,2013-08-21 02:10:00,
2013-08-20 21:11:00,74.2,65.4,29.92,West,275,0.0,0.0,74,0.00,,CLR,0.00,0.00,VWS V14.01,2013-08-21 02:11:00,
2013-08-20 21:15:00,74.1,65.7,29.93,West,275,0.0,0.0,75,0.00,,CLR,0.00,0.00,VWS V14.01,2013-08-21 02:15:00,
2013-08-20 21:16:00,74.1,65.7,29.93,West,275,0.0,0.0,75,0.00,,CLR,0.00,0.00,VWS V14.01,2013-08-21 02:16:00,
2013-08-20 21:20:00,73.9,65.5,29.93,West,275,0.0,0.0,75,0.00,,CLR,0.00,0.00,VWS V14.01,2013-08-21 02:20:00,
2013-08-20 21:21:00,73.9,65.5,29.93,West,275,0.0,0.0,75,0.00,,CLR,0.00,0.00,VWS V14.01,2013-08-21 02:21:00,
2013-08-20 21:25:00,73.8,65.4,29.93,West,275,0.0,1.0,75,0.00,,CLR,0.00,0.00,VWS V14.01,2013-08-21 02:25:00,
2013-08-20 21:26:00,73.8,65.4,29.93,West,275,0.0,0.0,75,0.00,,CLR,0.00,0.00,VWS V14.01,2013-08-21 02:26:00,
2013-08-20 21:30:00,73.6,65.2,29.93,West,275,0.0,1.0,75,0.00,,CLR,0.00,0.00,VWS V14.01,2013-08-21 02:30:00,
2013-08-20 21:31:00,73.6,65.6,29.93,West,275,0.0,0.0,76,0.00,,CLR,0.00,0.00,VWS V14.01,2013-08-21 02:31:00,
2013-08-20 21:35:00,73.5,65.5,29.93,West,275,0.0,1.0,76,0.00,,CLR,0.00,0.00,VWS V14.01,2013-08-21 02:35:00,
2013-08-20 21:36:00,73.5,65.5,29.93,West,275,0.0,0.0,76,0.00,,CLR,0.00,0.00,VWS V14.01,2013-08-21 02:36:00,
2013-08-20 21:40:00,73.4,65.4,29.93,West,275,0.0,0.0,76,0.00,,CLR,0.00,0.00,VWS V14.01,2013-08-21 02:40:00,
2013-08-20 21:41:00,73.3,65.3,29.93,West,275,0.0,0.0,76,0.00,,CLR,0.00,0.00,VWS V14.01,2013-08-21 02:41:00,
2013-08-20 21:45:00,73.2,65.2,29.93,West,275,0.0,0.0,76,0.00,,CLR,0.00,0.00,VWS V14.01,2013-08-21 02:45:00,
2013-08-20 21:46:00,73.2,65.2,29.93,West,275,0.0,0.0,76,0.00,,CLR,0.00,0.00,VWS V14.01,2013-08-21 02:46:00,
2013-08-20 21:50:00,73.0,65.4,29.93,West,275,0.0,0.0,77,0.00,,CLR,0.00,0.00,VWS V14.01,2013-08-21 02:50:00,
2013-08-20 21:51:00,73.0,65.4,29.93,West,275,0.0,0.0,77,0.00,,CLR,0.00,0.00,VWS V14.01,2013-08-21 02:51:00,
2013-08-20 21:55:00,72.8,65.2,29.93,West,275,0.0,1.0,77,0.00,,CLR,0.00,0.00,VWS V14.01,2013-08-21 02:55:00,
2013-08-20 21:56:00,72.8,65.2,29.93,West,275,0.0,0.0,77,0.00,,CLR,0.00,0.00,VWS V14.01,2013-08-21 02:56:00,
2013-08-20 22:00:00,72.7,65.1,29.94,West,275,0.0,0.0,77,0.00,,CLR,0.00,0.00,VWS V14.01,2013-08-21 03:00:00,
2013-08-20 22:01:00,72.6,65.0,29.94,West,275,0.0,1.0,77,0.00,,CLR,0.00,0.00,VWS V14.01,2013-08-21 03:01:00,
2013-08-20 22:05:00,72.5,64.5,29.94,WNW,293,0.0,1.0,76,0.00,,CLR,0.00,0.00,VWS V14.01,2013-08-21 03:05:00,
2013-08-20 22:06:00,72.5,64.5,29.94,WNW,293,0.0,0.0,76,0.00,,CLR,0.00,0.00,VWS V14.01,2013-08-21 03:06:00,
2013-08-20 22:10:00,72.4,64.8,29.94,WNW,293,0.0,0.0,77,0.00,,CLR,0.00,0.00,VWS V14.01,2013-08-21 03:10:00,
2013-08-20 22:11:00,72.4,64.8,29.94,WNW,293,0.0,0.0,77,0.00,,CLR,0.00,0.00,VWS V14.01,2013-08-21 03:11:00,
2013-08-20 22:15:00,72.3,64.7,29.94,WNW,293,0.0,0.0,77,0.00,,CLR,0.00,0.00,VWS V14.01,2013-08-21 03:15:00,
2013-08-20 22:16:00,72.3,64.7,29.94,WNW,293,0.0,0.0,77,0.00,,CLR,0.00,0.00,VWS V14.01,2013-08-21 03:16:00,
2013-08-20 22:20:00,72.2,64.6,29.94,WNW,293,0.0,1.0,77,0.00,,CLR,0.00,0.00,VWS V14.01,2013-08-21 03:20:00,
2013-08-20 22:21:00,72.2,64.6,29.94,WNW,293,0.0,0.0,77,0.00,,CLR,0.00,0.00,VWS V14.01,2013-08-21 03:21:00,
2013-08-20 22:25:00,72.0,64.4,29.94,NW,315,0.0,1.0,77,0.00,,CLR,0.00,0.00,VWS V14.01,2013-08-21 03:25:00,
2013-08-20 22:26:00,72.0,64.4,29.94,NW,315,0.0,0.0,77,0.00,,CLR,0.00,0.00,VWS V14.01,2013-08-21 03:26:00,
2013-08-20 22:30:00,71.9,64.3,29.94,NW,315,0.0,0.0,77,0.00,,CLR,0.00,0.00,VWS V14.01,2013-08-21 03:30:00,
2013-08-20 22:31:00,71.9,64.3,29.94,NW,315,0.0,0.0,77,0.00,,CLR,0.00,0.00,VWS V14.01,2013-08-21 03:31:00,
2013-08-20 22:35:00,71.8,64.6,29.94,NW,315,0.0,0.0,78,0.00,,CLR,0.00,0.00,VWS V14.01,2013-08-21 03:35:00,
2013-08-20 22:36:00,71.8,64.6,29.94,NW,315,0.0,0.0,78,0.00,,CLR,0.00,0.00,VWS V14.01,2013-08-21 03:36:00,
2013-08-20 22:40:00,71.7,64.5,29.94,NW,315,0.0,0.0,78,0.00,,CLR,0.00,0.00,VWS V14.01,2013-08-21 03:40:00,
2013-08-20 22:41:00,71.6,64.4,29.94,NW,315,1.0,1.0,78,0.00,,CLR,0.00,0.00,VWS V14.01,2013-08-21 03:41:00,
2013-08-20 22:45:00,71.5,64.3,29.95,NW,315,0.0,1.0,78,0.00,,CLR,0.00,0.00,VWS V14.01,2013-08-21 03:45:00,
2013-08-20 22:46:00,71.5,64.3,29.95,NW,315,0.0,0.0,78,0.00,,CLR,0.00,0.00,VWS V14.01,2013-08-21 03:46:00,
2013-08-20 22:50:00,71.4,64.6,29.95,NW,315,0.0,0.0,79,0.00,,CLR,0.00,0.00,VWS V14.01,2013-08-21 03:50:00,
2013-08-20 22:51:00,71.4,64.6,29.95,NW,315,0.0,0.0,79,0.00,,CLR,0.00,0.00,VWS V14.01,2013-08-21 03:51:00,
2013-08-20 22:55:00,71.3,64.8,29.95,NW,315,0.0,0.0,80,0.00,,CLR,0.00,0.00,VWS V14.01,2013-08-21 03:55:00,
2013-08-20 22:56:00,71.3,64.8,29.95,NW,315,0.0,0.0,80,0.00,,CLR,0.00,0.00,VWS V14.01,2013-08-21 03:56:00,
2013-08-20 23:00:00,71.2,64.7,29.95,NW,315,0.0,0.0,80,0.00,,CLR,0.00,0.00,VWS V14.01,2013-08-21 04:00:00,
2013-08-20 23:01:00,71.1,64.6,29.95,NW,315,0.0,0.0,80,0.00,,CLR,0.00,0.00,VWS V14.01,2013-08-21 04:01:00,
2013-08-20 23:02:00,71.1,64.6,29.95,NW,315,0.0,0.0,80,0.00,,CLR,0.00,0.00,VWS V14.01,2013-08-21 04:02:00,
2013-08-20 23:04:00,71.0,64.9,29.95,NW,315,0.0,0.0,81,0.00,,CLR,0.00,0.00,VWS V14.01,2013-08-21 04:04:00,
2013-08-20 23:05:00,71.0,64.5,29.95,NW,315,0.0,0.0,80,0.00,,CLR,0.00,0.00,VWS V14.01,2013-08-21 04:05:00,
2013-08-20 23:07:00,70.9,64.4,29.95,NW,315,0.0,0.0,80,0.00,,CLR,0.00,0.00,VWS V14.01,2013-08-21 04:07:00,
2013-08-20 23:10:00,70.8,64.3,29.95,NW,315,0.0,0.0,80,0.00,,CLR,0.00,0.00,VWS V14.01,2013-08-21 04:10:00,
2013-08-20 23:12:00,70.6,64.1,29.95,NW,315,0.0,0.0,80,0.00,,CLR,0.00,0.00,VWS V14.01,2013-08-21 04:12:00,
2013-08-20 23:15:00,70.5,64.0,29.95,NW,315,0.0,0.0,80,0.00,,CLR,0.00,0.00,VWS V14.01,2013-08-21 04:15:00,
2013-08-20 23:17:00,70.5,64.4,29.95,NW,315,0.0,0.0,81,0.00,,CLR,0.00,0.00,VWS V14.01,2013-08-21 04:17:00,
2013-08-20 23:20:00,70.4,64.3,29.95,NW,315,0.0,0.0,81,0.00,,CLR,0.00,0.00,VWS V14.01,2013-08-21 04:20:00,
2013-08-20 23:22:00,70.3,64.2,29.95,NW,315,0.0,1.0,81,0.00,,CLR,0.00,0.00,VWS V14.01,2013-08-21 04:22:00,
2013-08-20 23:25:00,70.3,64.2,29.95,NW,315,0.0,1.0,81,0.00,,CLR,0.00,0.00,VWS V14.01,2013-08-21 04:25:00,
2013-08-20 23:27:00,70.2,64.1,29.95,NW,315,0.0,0.0,81,0.00,,CLR,0.00,0.00,VWS V14.01,2013-08-21 04:27:00,
2013-08-20 23:30:00,70.1,64.4,29.95,NW,315,0.0,0.0,82,0.00,,CLR,0.00,0.00,VWS V14.01,2013-08-21 04:30:00,
2013-08-20 23:32:00,70.1,64.4,29.95,NW,315,0.0,0.0,82,0.00,,CLR,0.00,0.00,VWS V14.01,2013-08-21 04:32:00,
2013-08-20 23:35:00,70.0,64.3,29.95,NW,315,0.0,0.0,82,0.00,,CLR,0.00,0.00,VWS V14.01,2013-08-21 04:35:00,
2013-08-20 23:37:00,70.0,64.3,29.95,NW,315,0.0,0.0,82,0.00,,CLR,0.00,0.00,VWS V14.01,2013-08-21 04:37:00,
2013-08-20 23:40:00,69.9,64.5,29.95,NW,315,0.0,0.0,83,0.00,,CLR,0.00,0.00,VWS V14.01,2013-08-21 04:40:00,
2013-08-20 23:42:00,69.8,64.4,29.95,NW,315,0.0,0.0,83,0.00,,CLR,0.00,0.00,VWS V14.01,2013-08-21 04:42:00,
2013-08-20 23:45:00,69.8,64.4,29.95,NW,315,0.0,0.0,83,0.00,,CLR,0.00,0.00,VWS V14.01,2013-08-21 04:45:00,
2013-08-20 23:47:00,69.7,64.3,29.95,NW,315,0.0,0.0,83,0.00,,CLR,0.00,0.00,VWS V14.01,2013-08-21 04:47:00,
2013-08-20 23:50:00,69.6,64.6,29.95,NW,315,0.0,0.0,84,0.00,,CLR,0.00,0.00,VWS V14.01,2013-08-21 04:50:00,
2013-08-20 23:53:00,69.5,64.5,29.95,NW,315,0.0,0.0,84,0.00,,CLR,0.00,0.00,VWS V14.01,2013-08-21 04:53:00,
2013-08-20 23:55:00,69.4,64.7,29.95,NW,315,0.0,0.0,85,0.00,,CLR,0.00,0.00,VWS V14.01,2013-08-21 04:55:00,
2013-08-20 23:58:00,69.3,64.6,29.95,NW,315,0.0,0.0,85,0.00,,CLR,0.00,0.00,VWS V14.01,2013-08-21 04:58:00,